FW0860 Weather Reports


Display with metric or nautical units.
time (UTC)temp
F
wind
direction
speed
MPH
gust
MPH
rain 1hr
in
rain 24hr
in
rain mn
in
humidity
%
barometer
mb
20260904225518 104 221 3.0 7.0 0.00 0.00 0.00 26 1009.0
20260904225420 104 221 3.0 7.0 0.00 0.00 0.00 26 1009.0
20260904225351 104 221 3.0 7.0 0.00 0.00 0.00 26 1009.0
20260904225300 104 221 2.0 7.0 0.00 0.00 0.00 26 1009.0
20260904225120 104 219 2.0 7.0 0.00 0.00 0.00 26 1009.1
20260904225041 104 219 2.0 7.0 0.00 0.00 0.00 26 1009.1
20260904224951 104 219 1.0 7.0 0.00 0.00 0.00 26 1009.1
20260904224844 104 219 2.0 7.0 0.00 0.00 0.00 26 1009.1
20260904224724 104 219 4.0 9.0 0.00 0.00 0.00 26 1009.1
20260904224623 104 219 3.0 9.0 0.00 0.00 0.00 26 1009.1
20260904224526 104 218 2.0 9.0 0.00 0.00 0.00 26 1009.1
20260904224436 104 218 2.0 9.0 0.00 0.00 0.00 26 1009.1
20260904224355 104 219 2.0 12.0 0.00 0.00 0.00 26 1009.1
20260904224243 104 219 2.0 12.0 0.00 0.00 0.00 26 1009.1
20260904224130 104 219 2.0 12.0 0.00 0.00 0.00 26 1009.1
20260904224031 104 219 4.0 12.0 0.00 0.00 0.00 26 1009.1
20260904223941 104 218 4.0 12.0 0.00 0.00 0.00 26 1009.1
20260904223823 104 219 3.0 12.0 0.00 0.00 0.00 26 1009.1
20260904223723 104 215 3.0 12.0 0.00 0.00 0.00 26 1009.1
20260904223625 104 226 5.0 12.0 0.00 0.00 0.00 26 1009.1
20260904223539 105 234 5.0 12.0 0.00 0.00 0.00 26 1009.1
20260904223421 105 233 5.0 10.0 0.00 0.00 0.00 25 1009.2
20260904223324 105 252 5.0 10.0 0.00 0.00 0.00 25 1009.2
20260904223226 105 250 4.0 9.0 0.00 0.00 0.00 26 1009.1
20260904223136 105 251 3.0 9.0 0.00 0.00 0.00 26 1009.1
20260904223039 105 256 4.0 9.0 0.00 0.00 0.00 25 1009.1
20260904222923 105 265 4.0 9.0 0.00 0.00 0.00 25 1009.2
20260904222853 105 282 4.0 9.0 0.00 0.00 0.00 25 1009.2
20260904222741 105 283 3.0 8.0 0.00 0.00 0.00 26 1009.2
20260904222643 105 275 3.0 8.0 0.00 0.00 0.00 25 1009.3
20260904222522 105 275 3.0 8.0 0.00 0.00 0.00 25 1009.4
20260904222433 105 276 3.0 8.0 0.00 0.00 0.00 26 1009.4
20260904222319 105 307 1.0 8.0 0.00 0.00 0.00 29 1009.4
20260904222218 105 166 0.0 7.0 0.00 0.00 0.00 27 1009.5
20260904222119 104 166 0.0 7.0 0.00 0.00 0.00 27 1009.5
20260904222030 104 166 0.0 7.0 0.00 0.00 0.00 28 1009.5
20260904221952 103 166 1.0 7.0 0.00 0.00 0.00 28 1009.5
20260904221838 103 166 1.0 7.0 0.00 0.00 0.00 30 1009.5
20260904221720 103 166 2.0 7.0 0.00 0.00 0.00 28 1009.6
20260904221626 103 166 1.0 7.0 0.00 0.00 0.00 28 1009.6
20260904221530 103 141 0.0 6.0 0.00 0.00 0.00 28 1009.6
20260904221439 103 141 1.0 6.0 0.00 0.00 0.00 29 1009.6
20260904221321 103 141 3.0 6.0 0.00 0.00 0.00 29 1009.6
20260904221154 103 141 2.0 6.0 0.00 0.00 0.00 30 1009.5
20260904221019 103 217 1.0 2.0 0.00 0.00 0.00 29 1009.6
20260904220949 103 217 0.0 2.0 0.00 0.00 0.00 29 1009.6
20260904220827 102 217 0.0 2.0 0.00 0.00 0.00 31 1009.6
20260904220738 102 217 0.0 2.0 0.00 0.00 0.00 32 1009.6
20260904220640 102 217 1.0 3.0 0.00 0.00 0.00 29 1009.7
20260904220521 102 217 0.0 6.0 0.00 0.00 0.00 30 1009.7
20260904220451 102 217 0.0 7.0 0.00 0.00 0.00 29 1009.7
20260904220316 102 217 0.0 7.0 0.00 0.00 0.00 30 1009.8
20260904220216 102 217 0.0 7.0 0.00 0.00 0.00 30 1009.8
20260904220126 102 217 0.0 7.0 0.00 0.00 0.00 30 1009.8
20260904215915 102 217 1.0 7.0 0.00 0.00 0.00 29 1009.8
20260904215818 102 217 1.0 7.0 0.00 0.00 0.00 30 1009.8
20260904215727 102 217 3.0 7.0 0.00 0.00 0.00 30 1009.9
20260904215650 102 217 3.0 7.0 0.00 0.00 0.00 29 1009.9
20260904215515 102 212 2.0 5.0 0.00 0.00 0.00 29 1009.8
20260904215424 102 212 2.0 5.0 0.00 0.00 0.00 29 1009.9
20260904215345 102 212 2.0 4.0 0.00 0.00 0.00 29 1009.9
20260904215233 102 212 2.0 4.0 0.00 0.00 0.00 29 1009.9
20260904215155 102 212 2.0 4.0 0.00 0.00 0.00 29 1009.9
20260904215015 102 212 1.0 3.0 0.00 0.00 0.00 30 1009.9
20260904214930 102 212 1.0 3.0 0.00 0.00 0.00 30 1009.9
20260904214834 102 212 0.0 2.0 0.00 0.00 0.00 28 1009.9
20260904214716 102 211 0.0 2.0 0.00 0.00 0.00 28 1009.9
20260904214625 103 212 0.0 2.0 0.00 0.00 0.00 29 1009.9
20260904214546 103 212 0.0 2.0 0.00 0.00 0.00 29 1009.9
20260904214435 103 212 0.0 2.0 0.00 0.00 0.00 29 1009.9
20260904214322 103 211 0.0 3.0 0.00 0.00 0.00 30 1009.9
20260904214244 103 212 0.0 4.0 0.00 0.00 0.00 29 1009.9
20260904214135 103 212 0.0 4.0 0.00 0.00 0.00 29 1009.9
20260904214017 103 212 1.0 4.0 0.00 0.00 0.00 30 1009.9
20260904213920 102 212 1.0 4.0 0.00 0.00 0.00 30 1009.9
20260904213822 102 212 1.0 4.0 0.00 0.00 0.00 31 1009.9
20260904213733 101 212 1.0 4.0 0.00 0.00 0.00 31 1009.9
20260904213638 101 212 2.0 5.0 0.00 0.00 0.00 30 1009.9
20260904213519 101 212 2.0 5.0 0.00 0.00 0.00 30 1010.0
20260904213429 101 213 2.0 5.0 0.00 0.00 0.00 30 1010.0
20260904213349 101 215 1.0 5.0 0.00 0.00 0.00 30 1010.0
20260904213236 101 215 0.0 5.0 0.00 0.00 0.00 30 1010.0
20260904213118 101 215 0.0 5.0 0.00 0.00 0.00 30 1010.1
20260904213039 101 215 1.0 5.0 0.00 0.00 0.00 29 1010.1
20260904212933 102 215 2.0 5.0 0.00 0.00 0.00 29 1010.1
20260904212833 102 215 3.0 5.0 0.00 0.00 0.00 29 1010.1
20260904212716 102 216 3.0 5.0 0.00 0.00 0.00 29 1010.1
20260904212625 102 216 3.0 5.0 0.00 0.00 0.00 29 1010.1
20260904212527 102 215 2.0 5.0 0.00 0.00 0.00 29 1010.1
20260904212430 102 214 1.0 6.0 0.00 0.00 0.00 29 1010.1
20260904212315 102 213 1.0 7.0 0.00 0.00 0.00 29 1010.1
20260904212225 102 214 1.0 7.0 0.00 0.00 0.00 29 1010.1
20260904212126 103 214 1.0 8.0 0.00 0.00 0.00 29 1010.1
20260904212030 103 214 2.0 8.0 0.00 0.00 0.00 28 1010.1
20260904211939 103 214 3.0 11.0 0.00 0.00 0.00 29 1010.2
20260904211821 103 214 3.0 11.0 0.00 0.00 0.00 29 1010.2
20260904211727 103 214 3.0 11.0 0.00 0.00 0.00 29 1010.2
20260904211637 103 214 4.0 11.0 0.00 0.00 0.00 29 1010.2
20260904211518 103 225 4.0 11.0 0.00 0.00 0.00 29 1010.3
20260904211420 103 223 4.0 11.0 0.00 0.00 0.00 29 1010.2
20260904211330 103 223 5.0 11.0 0.00 0.00 0.00 29 1010.2
20260904211232 103 215 5.0 11.0 0.00 0.00 0.00 29 1010.2
20260904211144 103 214 4.0 11.0 0.00 0.00 0.00 28 1010.2
20260904211025 104 217 2.0 7.0 0.00 0.00 0.00 28 1010.2
20260904210954 104 228 3.0 7.0 0.00 0.00 0.00 28 1010.2
20260904210815 104 228 3.0 7.0 0.00 0.00 0.00 28 1010.4
20260904210719 103 125 2.0 6.0 0.00 0.00 0.00 29 1010.4
20260904210622 103 120 1.0 5.0 0.00 0.00 0.00 32 1010.4
20260904210551 103 120 1.0 5.0 0.00 0.00 0.00 31 1010.4
20260904210457 103 118 0.0 3.0 0.00 0.00 0.00 31 1010.3
20260904210322 103 118 1.0 3.0 0.00 0.00 0.00 31 1010.5
20260904210225 103 118 1.0 4.0 0.00 0.00 0.00 32 1010.5
20260904210127 103 118 1.0 6.0 0.00 0.00 0.00 32 1010.5
20260904210029 103 118 1.0 6.0 0.00 0.00 0.00 33 1010.5
20260904205917 103 118 0.0 6.0 0.00 0.00 0.00 32 1010.6
20260904205827 104 118 1.0 8.0 0.00 0.00 0.00 31 1010.6
20260904205734 103 118 1.0 8.0 0.00 0.00 0.00 33 1010.6
20260904205617 103 118 1.0 8.0 0.00 0.00 0.00 32 1010.6
20260904205519 103 118 2.0 8.0 0.00 0.00 0.00 33 1010.6
20260904205430 103 118 2.0 8.0 0.00 0.00 0.00 34 1010.6
20260904205352 102 120 2.0 8.0 0.00 0.00 0.00 32 1010.5
20260904205218 103 122 2.0 8.0 0.00 0.00 0.00 32 1010.6
20260904205139 103 122 2.0 8.0 0.00 0.00 0.00 31 1010.6
20260904205032 104 122 2.0 8.0 0.00 0.00 0.00 32 1010.6
20260904204939 104 116 2.0 5.0 0.00 0.00 0.00 31 1010.5
20260904204822 104 116 1.0 4.0 0.00 0.00 0.00 32 1010.6
20260904204724 104 116 1.0 4.0 0.00 0.00 0.00 34 1010.6
20260904204655 104 117 1.0 4.0 0.00 0.00 0.00 33 1010.6
20260904204535 104 117 1.0 4.0 0.00 0.00 0.00 34 1010.7
20260904204444 103 123 0.0 4.0 0.00 0.00 0.00 34 1010.5
20260904204344 103 123 0.0 4.0 0.00 0.00 0.00 36 1010.6
20260904204237 103 123 1.0 4.0 0.00 0.00 0.00 34 1010.6
20260904204119 103 123 1.0 4.0 0.00 0.00 0.00 36 1010.6
20260904204041 103 123 1.0 4.0 0.00 0.00 0.00 36 1010.6
20260904203929 102 126 1.0 4.0 0.00 0.00 0.00 36 1010.7
20260904203831 102 128 1.0 3.0 0.00 0.00 0.00 35 1010.7
20260904203733 102 123 1.0 3.0 0.00 0.00 0.00 38 1010.7
20260904203626 102 124 1.0 3.0 0.00 0.00 0.00 37 1010.8
20260904203530 101 124 1.0 3.0 0.00 0.00 0.00 36 1010.8
20260904203431 101 126 0.0 3.0 0.00 0.00 0.00 37 1010.7
20260904203340 101 126 0.0 3.0 0.00 0.00 0.00 36 1010.8
20260904203223 101 125 0.0 3.0 0.00 0.00 0.00 37 1010.8
20260904203125 100 125 0.0 3.0 0.00 0.00 0.00 37 1010.8
20260904203059 100 125 1.0 3.0 0.00 0.00 0.00 38 1010.9
20260904202939 100 125 1.0 3.0 0.00 0.00 0.00 37 1010.8
20260904202827 100 130 0.0 2.0 0.00 0.00 0.00 37 1010.8
20260904202727 99 130 0.0 3.0 0.00 0.00 0.00 37 1010.9
20260904202629 99 130 0.0 3.0 0.00 0.00 0.00 37 1010.9
20260904202538 99 130 0.0 3.0 0.00 0.00 0.00 36 1010.9
20260904202420 99 130 1.0 5.0 0.00 0.00 0.00 37 1011.0
20260904202346 99 130 1.0 5.0 0.00 0.00 0.00 37 1011.0
20260904202235 99 130 1.0 5.0 0.00 0.00 0.00 36 1011.0
20260904202137 99 130 1.0 5.0 0.00 0.00 0.00 36 1011.1
20260904202019 99 130 1.0 5.0 0.00 0.00 0.00 35 1011.1
20260904201927 100 130 1.0 5.0 0.00 0.00 0.00 36 1011.1
20260904201830 100 130 1.0 5.0 0.00 0.00 0.00 35 1011.1
20260904201738 100 130 2.0 5.0 0.00 0.00 0.00 36 1011.0
20260904201623 100 130 2.0 7.0 0.00 0.00 0.00 35 1011.1
20260904201554 100 131 1.0 7.0 0.00 0.00 0.00 36 1011.1
20260904201434 100 131 2.0 7.0 0.00 0.00 0.00 36 1011.2
20260904201316 101 131 2.0 7.0 0.00 0.00 0.00 36 1011.2
20260904201218 100 92 2.0 7.0 0.00 0.00 0.00 37 1011.1
20260904201126 100 85 2.0 7.0 0.00 0.00 0.00 37 1011.2
20260904201032 100 89 1.0 7.0 0.00 0.00 0.00 36 1011.2
20260904200934 100 94 1.0 7.0 0.00 0.00 0.00 36 1011.2
20260904200816 101 87 0.0 7.0 0.00 0.00 0.00 36 1011.3
20260904200725 101 87 0.0 4.0 0.00 0.00 0.00 35 1011.3
20260904200647 101 86 1.0 4.0 0.00 0.00 0.00 36 1011.4
20260904200536 101 113 1.0 4.0 0.00 0.00 0.00 36 1011.4
20260904200417 100 113 1.0 4.0 0.00 0.00 0.00 36 1011.3
20260904200332 100 113 1.0 4.0 0.00 0.00 0.00 36 1011.3
20260904200233 100 113 2.0 4.0 0.00 0.00 0.00 37 1011.3
20260904200135 100 113 1.0 4.0 0.00 0.00 0.00 35 1011.3
20260904200035 100 113 0.0 4.0 0.00 0.00 0.00 36 1011.3
20260904195926 100 113 2.0 4.0 0.00 0.00 0.00 36 1011.4
20260904195827 100 113 3.0 4.0 0.00 0.00 0.00 38 1011.4
20260904195741 100 113 2.0 4.0 0.00 0.00 0.00 36 1011.4
20260904195623 100 113 1.0 5.0 0.00 0.00 0.00 37 1011.5
20260904195533 99 113 2.0 5.0 0.00 0.00 0.00 36 1011.5
20260904195415 99 113 1.0 5.0 0.00 0.00 0.00 36 1011.5
20260904195316 99 115 2.0 5.0 0.00 0.00 0.00 36 1011.4
20260904195217 100 115 2.0 5.0 0.00 0.00 0.00 35 1011.6
20260904195132 100 115 2.0 5.0 0.00 0.00 0.00 35 1011.6
20260904195034 100 115 2.0 5.0 0.00 0.00 0.00 35 1011.6
20260904194934 100 114 2.0 5.0 0.00 0.00 0.00 35 1011.5
20260904194816 101 108 1.0 5.0 0.00 0.00 0.00 35 1011.5
20260904194725 101 103 2.0 5.0 0.00 0.00 0.00 34 1011.6
20260904194625 101 101 2.0 4.0 0.00 0.00 0.00 35 1011.6
20260904194532 101 98 2.0 4.0 0.00 0.00 0.00 36 1011.6
20260904194440 101 96 2.0 4.0 0.00 0.00 0.00 35 1011.6
20260904194323 101 96 2.0 4.0 0.00 0.00 0.00 36 1011.6
20260904194226 101 95 1.0 4.0 0.00 0.00 0.00 37 1011.7
20260904194127 100 98 1.0 5.0 0.00 0.00 0.00 38 1011.6
20260904194037 101 98 1.0 5.0 0.00 0.00 0.00 36 1011.6
20260904193943 101 98 1.0 5.0 0.00 0.00 0.00 36 1011.6
20260904193851 101 94 0.0 5.0 0.00 0.00 0.00 36 1011.6
20260904193733 101 94 0.0 5.0 0.00 0.00 0.00 37 1011.6
20260904193643 100 94 1.0 5.0 0.00 0.00 0.00 36 1011.6
20260904193517 100 94 0.0 5.0 0.00 0.00 0.00 36 1011.6
20260904193445 100 94 1.0 5.0 0.00 0.00 0.00 35 1011.6
20260904193333 101 94 1.0 5.0 0.00 0.00 0.00 36 1011.6
20260904193241 101 93 0.0 6.0 0.00 0.00 0.00 36 1011.6
20260904193147 101 87 1.0 6.0 0.00 0.00 0.00 37 1011.7
20260904193029 101 87 2.0 6.0 0.00 0.00 0.00 37 1011.7
20260904192936 101 89 2.0 6.0 0.00 0.00 0.00 36 1011.7
20260904192818 100 90 2.0 6.0 0.00 0.00 0.00 37 1011.7
20260904192720 100 95 2.0 6.0 0.00 0.00 0.00 37 1011.7
20260904192623 100 48 2.0 6.0 0.00 0.00 0.00 37 1011.8
20260904192515 100 77 2.0 6.0 0.00 0.00 0.00 37 1011.7
20260904192418 100 98 2.0 6.0 0.00 0.00 0.00 37 1011.7
20260904192320 100 115 2.0 7.0 0.00 0.00 0.00 37 1011.8
20260904192230 100 117 2.0 7.0 0.00 0.00 0.00 38 1011.8
20260904192130 100 115 2.0 7.0 0.00 0.00 0.00 37 1011.8
20260904192031 100 115 1.0 7.0 0.00 0.00 0.00 38 1011.8
20260904191939 100 120 2.0 7.0 0.00 0.00 0.00 38 1011.8
20260904191823 100 119 3.0 7.0 0.00 0.00 0.00 38 1011.9
20260904191733 100 119 2.0 7.0 0.00 0.00 0.00 38 1011.9
20260904191634 100 105 2.0 7.0 0.00 0.00 0.00 38 1011.8
20260904191516 99 105 1.0 6.0 0.00 0.00 0.00 40 1011.9
20260904191426 99 105 1.0 6.0 0.00 0.00 0.00 40 1011.9
20260904191329 98 108 1.0 6.0 0.00 0.00 0.00 39 1011.9
20260904191234 99 107 1.0 6.0 0.00 0.00 0.00 39 1011.9
20260904191117 99 107 2.0 6.0 0.00 0.00 0.00 39 1012.1
20260904191026 99 108 2.0 7.0 0.00 0.00 0.00 39 1012.0
20260904190927 99 125 2.0 7.0 0.00 0.00 0.00 39 1012.0
20260904190827 99 127 2.0 7.0 0.00 0.00 0.00 39 1012.0
20260904190737 99 127 2.0 7.0 0.00 0.00 0.00 39 1012.0
20260904190622 99 126 2.0 9.0 0.00 0.00 0.00 38 1012.0
20260904190524 99 126 2.0 9.0 0.00 0.00 0.00 38 1012.0
20260904190422 99 124 1.0 9.0 0.00 0.00 0.00 38 1012.0
20260904190332 99 121 1.0 9.0 0.00 0.00 0.00 38 1012.0
20260904190231 99 121 2.0 9.0 0.00 0.00 0.00 39 1012.0
20260904190130 99 121 2.0 9.0 0.00 0.00 0.00 37 1012.0
20260904190055 99 121 3.0 9.0 0.00 0.00 0.00 38 1012.2
20260904185925 100 119 4.0 9.0 0.00 0.00 0.00 37 1012.2
20260904185835 100 121 3.0 9.0 0.00 0.00 0.00 37 1012.2
20260904185716 100 163 2.0 5.0 0.00 0.00 0.00 38 1012.2
20260904185618 100 182 1.0 5.0 0.00 0.00 0.00 38 1012.2
20260904185527 100 188 1.0 6.0 0.00 0.00 0.00 40 1012.3
20260904185448 99 188 1.0 8.0 0.00 0.00 0.00 39 1012.3
20260904185319 99 189 1.0 8.0 0.00 0.00 0.00 42 1012.4
20260904185221 98 190 1.0 8.0 0.00 0.00 0.00 41 1012.4
20260904185152 98 195 1.0 8.0 0.00 0.00 0.00 39 1012.4
20260904185052 98 195 1.0 8.0 0.00 0.00 0.00 38 1012.4
20260904184941 98 195 1.0 8.0 0.00 0.00 0.00 38 1012.4
20260904184823 99 195 2.0 8.0 0.00 0.00 0.00 38 1012.4
20260904184726 99 195 3.0 8.0 0.00 0.00 0.00 37 1012.3
20260904184633 100 195 2.0 8.0 0.00 0.00 0.00 38 1012.3
20260904184543 100 124 1.0 9.0 0.00 0.00 0.00 39 1012.4
20260904184424 99 124 2.0 9.0 0.00 0.00 0.00 40 1012.4
20260904184347 98 129 2.0 9.0 0.00 0.00 0.00 41 1012.4
20260904184236 98 129 2.0 9.0 0.00 0.00 0.00 40 1012.4
20260904184118 98 131 3.0 9.0 0.00 0.00 0.00 40 1012.5
20260904184023 98 128 2.0 15.0 0.00 0.00 0.00 39 1012.6
20260904183925 98 131 4.0 15.0 0.00 0.00 0.00 40 1012.6
20260904183834 98 101 4.0 15.0 0.00 0.00 0.00 40 1012.6
20260904183716 98 118 4.0 15.0 0.00 0.00 0.00 40 1012.5
20260904183625 98 110 4.0 15.0 0.00 0.00 0.00 39 1012.6
20260904183524 98 133 3.0 15.0 0.00 0.00 0.00 39 1012.6
20260904183433 99 122 3.0 15.0 0.00 0.00 0.00 40 1012.6
20260904183341 98 117 3.0 15.0 0.00 0.00 0.00 41 1012.5
20260904183222 98 92 4.0 15.0 0.00 0.00 0.00 41 1012.5
20260904183152 97 96 2.0 15.0 0.00 0.00 0.00 41 1012.5
20260904183034 97 147 0.0 6.0 0.00 0.00 0.00 42 1012.6
20260904182935 97 147 1.0 6.0 0.00 0.00 0.00 44 1012.6
20260904182816 97 147 2.0 6.0 0.00 0.00 0.00 42 1012.6
20260904182751 97 147 2.0 6.0 0.00 0.00 0.00 41 1012.6
20260904182632 97 146 1.0 6.0 0.00 0.00 0.00 42 1012.7
20260904182515 97 146 2.0 6.0 0.00 0.00 0.00 41 1012.7
20260904182425 97 146 2.0 6.0 0.00 0.00 0.00 41 1012.8
20260904182326 98 146 1.0 6.0 0.00 0.00 0.00 41 1012.7
20260904182229 98 146 1.0 6.0 0.00 0.00 0.00 40 1012.7
20260904182140 98 146 2.0 6.0 0.00 0.00 0.00 42 1012.8
20260904182042 97 146 2.0 6.0 0.00 0.00 0.00 44 1012.8
20260904181948 97 146 2.0 6.0 0.00 0.00 0.00 43 1012.8
20260904181830 97 146 3.0 6.0 0.00 0.00 0.00 43 1012.8
20260904181739 97 147 3.0 6.0 0.00 0.00 0.00 43 1012.9
20260904181622 97 148 2.0 6.0 0.00 0.00 0.00 43 1012.9
20260904181524 97 148 1.0 6.0 0.00 0.00 0.00 43 1013.0
20260904181437 97 148 1.0 3.0 0.00 0.00 0.00 42 1013.0
20260904181319 97 147 1.0 3.0 0.00 0.00 0.00 42 1012.9
20260904181221 97 148 1.0 4.0 0.00 0.00 0.00 44 1012.8
20260904181123 97 147 1.0 5.0 0.00 0.00 0.00 43 1012.8
20260904181034 97 147 1.0 5.0 0.00 0.00 0.00 42 1012.8
20260904180916 96 142 1.0 5.0 0.00 0.00 0.00 44 1012.9
20260904180820 96 143 0.0 5.0 0.00 0.00 0.00 42 1013.0
20260904180723 96 147 0.0 5.0 0.00 0.00 0.00 43 1013.0
20260904180633 96 147 1.0 8.0 0.00 0.00 0.00 43 1013.0
20260904180554 96 147 2.0 8.0 0.00 0.00 0.00 42 1012.9
20260904180415 97 147 2.0 8.0 0.00 0.00 0.00 42 1013.0
20260904180325 97 148 2.0 8.0 0.00 0.00 0.00 43 1013.0
20260904180232 97 147 2.0 8.0 0.00 0.00 0.00 43 1013.0
20260904180133 97 145 2.0 8.0 0.00 0.00 0.00 43 1012.9
20260904180034 96 145 2.0 8.0 0.00 0.00 0.00 44 1012.9
20260904175924 96 145 2.0 8.0 0.00 0.00 0.00 44 1013.0
20260904175825 95 149 2.0 7.0 0.00 0.00 0.00 45 1012.9
20260904175735 95 152 3.0 7.0 0.00 0.00 0.00 44 1012.9
20260904175621 95 153 2.0 7.0 0.00 0.00 0.00 44 1013.1
20260904175523 95 167 2.0 7.0 0.00 0.00 0.00 45 1013.0
20260904175425 95 167 2.0 7.0 0.00 0.00 0.00 44 1013.1
20260904175335 95 167 1.0 7.0 0.00 0.00 0.00 45 1013.1
20260904175217 95 167 1.0 7.0 0.00 0.00 0.00 44 1013.1
20260904175119 96 110 2.0 7.0 0.00 0.00 0.00 43 1013.1
20260904175024 96 110 2.0 7.0 0.00 0.00 0.00 43 1013.1
20260904174935 96 110 2.0 7.0 0.00 0.00 0.00 43 1013.1
20260904174818 96 110 2.0 7.0 0.00 0.00 0.00 44 1013.2
20260904174718 96 103 2.0 7.0 0.00 0.00 0.00 44 1013.1
20260904174619 96 113 2.0 7.0 0.00 0.00 0.00 44 1013.3
20260904174529 96 112 1.0 7.0 0.00 0.00 0.00 44 1013.3
20260904174434 96 101 1.0 5.0 0.00 0.00 0.00 44 1013.2
20260904174316 96 101 1.0 5.0 0.00 0.00 0.00 44 1013.2
20260904174226 96 101 2.0 5.0 0.00 0.00 0.00 43 1013.3
20260904174127 97 100 2.0 5.0 0.00 0.00 0.00 43 1013.2
20260904174029 97 100 1.0 3.0 0.00 0.00 0.00 42 1013.2
20260904173916 97 100 1.0 3.0 0.00 0.00 0.00 43 1013.2
20260904173825 96 100 0.0 3.0 0.00 0.00 0.00 43 1013.1
20260904173725 96 100 1.0 3.0 0.00 0.00 0.00 42 1013.1
20260904173626 97 100 1.0 3.0 0.00 0.00 0.00 42 1013.1
20260904173537 97 100 1.0 3.0 0.00 0.00 0.00 42 1013.1
20260904173419 97 100 1.0 3.0 0.00 0.00 0.00 41 1013.0
20260904173326 97 100 1.0 2.0 0.00 0.00 0.00 43 1013.0
20260904173227 97 100 1.0 2.0 0.00 0.00 0.00 44 1013.0
20260904173137 96 101 1.0 2.0 0.00 0.00 0.00 44 1013.1
20260904173018 96 110 0.0 5.0 0.00 0.00 0.00 43 1013.1
20260904172919 96 110 0.0 5.0 0.00 0.00 0.00 44 1013.1
20260904172829 96 110 1.0 5.0 0.00 0.00 0.00 44 1013.1
20260904172730 96 110 1.0 5.0 0.00 0.00 0.00 44 1013.2
20260904172615 95 110 1.0 5.0 0.00 0.00 0.00 45 1013.2
20260904172517 95 110 1.0 5.0 0.00 0.00 0.00 45 1013.2
20260904172426 94 110 1.0 5.0 0.00 0.00 0.00 45 1013.2
20260904172330 94 110 1.0 5.0 0.00 0.00 0.00 45 1013.2
20260904172237 94 110 1.0 5.0 0.00 0.00 0.00 46 1013.3
20260904172119 94 109 1.0 5.0 0.00 0.00 0.00 46 1013.1
20260904172024 94 109 1.0 5.0 0.00 0.00 0.00 46 1013.1
20260904171934 94 109 2.0 5.0 0.00 0.00 0.00 46 1013.1
20260904171816 94 109 2.0 7.0 0.00 0.00 0.00 46 1013.1
20260904171717 94 109 2.0 7.0 0.00 0.00 0.00 46 1013.1
20260904171647 95 109 1.0 7.0 0.00 0.00 0.00 46 1013.1
20260904171526 94 109 1.0 7.0 0.00 0.00 0.00 46 1013.2
20260904171456 94 109 1.0 7.0 0.00 0.00 0.00 47 1013.2
20260904171321 94 111 1.0 7.0 0.00 0.00 0.00 47 1013.1
20260904171224 94 111 2.0 7.0 0.00 0.00 0.00 48 1013.1
20260904171126 94 113 2.0 7.0 0.00 0.00 0.00 47 1013.1
20260904171036 94 113 2.0 7.0 0.00 0.00 0.00 47 1013.1
20260904170935 94 114 2.0 7.0 0.00 0.00 0.00 47 1013.2
20260904170823 94 113 2.0 7.0 0.00 0.00 0.00 49 1013.1
20260904170730 93 114 2.0 7.0 0.00 0.00 0.00 48 1013.1
20260904170633 93 122 2.0 7.0 0.00 0.00 0.00 48 1013.1
20260904170523 93 123 2.0 7.0 0.00 0.00 0.00 49 1013.1
20260904170424 93 123 2.0 7.0 0.00 0.00 0.00 48 1013.2
20260904170354 93 123 2.0 7.0 0.00 0.00 0.00 48 1013.2
20260904170216 93 120 3.0 7.0 0.00 0.00 0.00 48 1013.2
20260904170122 93 122 3.0 7.0 0.00 0.00 0.00 49 1013.1
20260904170035 93 117 2.0 6.0 0.00 0.00 0.00 49 1013.1
20260904165932 93 120 2.0 6.0 0.00 0.00 0.00 49 1013.1
20260904165815 93 116 2.0 6.0 0.00 0.00 0.00 49 1013.2
20260904165717 93 115 2.0 6.0 0.00 0.00 0.00 49 1013.2
20260904165552 93 106 2.0 7.0 0.00 0.00 0.00 48 1013.2
20260904165444 93 112 1.0 7.0 0.00 0.00 0.00 50 1013.2
20260904165324 93 112 1.0 9.0 0.00 0.00 0.00 49 1013.1
20260904165254 93 112 1.0 9.0 0.00 0.00 0.00 49 1013.1
20260904165134 93 111 1.0 9.0 0.00 0.00 0.00 50 1013.2
20260904165016 93 108 1.0 9.0 0.00 0.00 0.00 51 1013.2
20260904164947 93 101 2.0 9.0 0.00 0.00 0.00 51 1013.2
20260904164908 92 97 3.0 9.0 0.00 0.00 0.00 51 1013.2
20260904164633 92 136 3.0 9.0 0.00 0.00 0.00 51 1013.2
20260904164543 92 134 4.0 9.0 0.00 0.00 0.00 51 1013.1
20260904164425 92 134 4.0 8.0 0.00 0.00 0.00 51 1013.1
20260904164326 92 122 3.0 8.0 0.00 0.00 0.00 51 1013.0
20260904164236 92 123 2.0 8.0 0.00 0.00 0.00 51 1013.0
20260904164138 92 121 3.0 11.0 0.00 0.00 0.00 51 1013.0
20260904164047 92 122 3.0 11.0 0.00 0.00 0.00 51 1013.0
20260904163933 92 117 4.0 11.0 0.00 0.00 0.00 51 1013.0
20260904163842 92 146 3.0 11.0 0.00 0.00 0.00 51 1013.1
20260904163724 92 141 3.0 11.0 0.00 0.00 0.00 51 1013.1
20260904163644 92 131 3.0 11.0 0.00 0.00 0.00 51 1013.0
20260904163553 92 131 2.0 11.0 0.00 0.00 0.00 51 1013.0
20260904163434 92 120 3.0 11.0 0.00 0.00 0.00 51 1013.0
20260904163321 92 113 3.0 11.0 0.00 0.00 0.00 52 1012.9
20260904163227 91 121 3.0 10.0 0.00 0.00 0.00 52 1013.0
20260904163127 91 119 5.0 10.0 0.00 0.00 0.00 52 1012.9
20260904163037 91 126 4.0 10.0 0.00 0.00 0.00 52 1012.9
20260904162919 92 130 4.0 9.0 0.00 0.00 0.00 52 1013.0
20260904162848 92 126 3.0 9.0 0.00 0.00 0.00 53 1013.0
20260904162619 91 135 3.0 11.0 0.00 0.00 0.00 53 1013.0
20260904162520 91 136 3.0 11.0 0.00 0.00 0.00 53 1013.0
20260904162430 91 141 2.0 11.0 0.00 0.00 0.00 54 1013.0
20260904162401 91 141 3.0 11.0 0.00 0.00 0.00 54 1013.0
20260904162240 91 137 3.0 11.0 0.00 0.00 0.00 54 1013.0
20260904162122 91 134 3.0 11.0 0.00 0.00 0.00 54 1013.0
20260904162024 91 135 3.0 11.0 0.00 0.00 0.00 54 1012.9
20260904161938 91 136 4.0 11.0 0.00 0.00 0.00 54 1012.9
20260904161820 91 116 5.0 11.0 0.00 0.00 0.00 54 1012.9
20260904161723 91 119 5.0 11.0 0.00 0.00 0.00 54 1012.9
20260904161624 91 142 5.0 11.0 0.00 0.00 0.00 54 1012.8
20260904161534 91 139 5.0 10.0 0.00 0.00 0.00 54 1012.8
20260904161455 91 132 4.0 10.0 0.00 0.00 0.00 54 1012.8
20260904161320 91 139 4.0 10.0 0.00 0.00 0.00 54 1012.8
20260904161229 90 139 3.0 10.0 0.00 0.00 0.00 54 1012.8
20260904161130 90 138 3.0 10.0 0.00 0.00 0.00 54 1012.8
20260904161030 90 137 4.0 10.0 0.00 0.00 0.00 54 1012.8
20260904160939 90 143 4.0 10.0 0.00 0.00 0.00 55 1012.9
20260904160821 90 143 3.0 11.0 0.00 0.00 0.00 56 1012.9
20260904160726 90 144 4.0 11.0 0.00 0.00 0.00 56 1012.8
20260904160629 90 135 5.0 11.0 0.00 0.00 0.00 56 1012.8
20260904160537 90 120 4.0 11.0 0.00 0.00 0.00 56 1012.9
20260904160419 90 133 3.0 11.0 0.00 0.00 0.00 56 1012.9
20260904160321 90 123 4.0 11.0 0.00 0.00 0.00 56 1012.8
20260904160251 90 120 4.0 11.0 0.00 0.00 0.00 56 1012.8
20260904160136 90 122 5.0 11.0 0.00 0.00 0.00 56 1012.9
20260904160055 90 123 5.0 11.0 0.00 0.00 0.00 56 1012.9
20260904155924 90 122 3.0 11.0 0.00 0.00 0.00 56 1012.9
20260904155833 90 125 3.0 11.0 0.00 0.00 0.00 57 1012.9
20260904155740 90 124 4.0 11.0 0.00 0.00 0.00 56 1012.9
20260904155620 90 123 4.0 11.0 0.00 0.00 0.00 57 1012.8
20260904155520 90 110 4.0 10.0 0.00 0.00 0.00 57 1012.8
20260904155426 89 108 3.0 10.0 0.00 0.00 0.00 58 1012.8
20260904155336 89 113 3.0 9.0 0.00 0.00 0.00 57 1012.8
20260904155217 89 111 3.0 9.0 0.00 0.00 0.00 57 1012.9
20260904155119 89 108 3.0 9.0 0.00 0.00 0.00 57 1012.8
20260904155027 89 111 3.0 9.0 0.00 0.00 0.00 58 1012.8
20260904154930 89 111 2.0 9.0 0.00 0.00 0.00 58 1012.8
20260904154831 89 116 2.0 9.0 0.00 0.00 0.00 59 1012.7
20260904154744 89 115 3.0 11.0 0.00 0.00 0.00 59 1012.7
20260904154624 89 115 4.0 11.0 0.00 0.00 0.00 58 1012.7
20260904154533 89 118 3.0 11.0 0.00 0.00 0.00 58 1012.7
20260904154432 89 118 4.0 11.0 0.00 0.00 0.00 59 1012.7
20260904154333 89 118 4.0 11.0 0.00 0.00 0.00 58 1012.6
20260904154242 89 117 3.0 11.0 0.00 0.00 0.00 59 1012.6
20260904154127 88 113 2.0 11.0 0.00 0.00 0.00 59 1012.5
20260904154027 88 113 3.0 11.0 0.00 0.00 0.00 59 1012.6
20260904153957 88 111 4.0 11.0 0.00 0.00 0.00 59 1012.6
20260904153838 88 115 4.0 11.0 0.00 0.00 0.00 59 1012.6
20260904153726 88 110 4.0 11.0 0.00 0.00 0.00 59 1012.7
20260904153629 88 113 2.0 11.0 0.00 0.00 0.00 59 1012.7
20260904153530 88 114 3.0 11.0 0.00 0.00 0.00 59 1012.6
20260904153416 88 114 4.0 11.0 0.00 0.00 0.00 60 1012.7
20260904153325 88 116 3.0 11.0 0.00 0.00 0.00 60 1012.8
20260904153226 88 120 3.0 11.0 0.00 0.00 0.00 60 1012.7
20260904153135 88 120 2.0 11.0 0.00 0.00 0.00 61 1012.7
20260904153018 88 120 2.0 11.0 0.00 0.00 0.00 61 1012.7
20260904152920 88 120 2.0 11.0 0.00 0.00 0.00 61 1012.7
20260904152826 87 120 2.0 11.0 0.00 0.00 0.00 61 1012.8
20260904152736 87 120 3.0 11.0 0.00 0.00 0.00 61 1012.8
20260904152618 87 120 4.0 11.0 0.00 0.00 0.00 61 1012.7
20260904152520 87 120 3.0 11.0 0.00 0.00 0.00 61 1012.6
20260904152421 87 120 3.0 11.0 0.00 0.00 0.00 61 1012.6
20260904152351 87 120 4.0 11.0 0.00 0.00 0.00 61 1012.6
20260904152229 87 120 4.0 10.0 0.00 0.00 0.00 62 1012.5
20260904152142 87 119 4.0 10.0 0.00 0.00 0.00 62 1012.6
20260904152023 87 120 3.0 10.0 0.00 0.00 0.00 62 1012.6
20260904151926 87 119 4.0 10.0 0.00 0.00 0.00 62 1012.6
20260904151837 87 119 4.0 10.0 0.00 0.00 0.00 62 1012.6
20260904151738 87 117 4.0 8.0 0.00 0.00 0.00 62 1012.7
20260904151624 87 117 3.0 8.0 0.00 0.00 0.00 62 1012.7
20260904151526 87 117 3.0 8.0 0.00 0.00 0.00 62 1012.7
20260904151435 87 117 4.0 7.0 0.00 0.00 0.00 62 1012.7
20260904151337 87 117 3.0 7.0 0.00 0.00 0.00 62 1012.7
20260904151223 87 117 3.0 8.0 0.00 0.00 0.00 62 1012.8
20260904151144 87 116 3.0 11.0 0.00 0.00 0.00 62 1012.7
20260904151034 87 116 3.0 11.0 0.00 0.00 0.00 62 1012.7
20260904150917 87 116 2.0 11.0 0.00 0.00 0.00 62 1012.7
20260904150819 87 116 2.0 11.0 0.00 0.00 0.00 62 1012.7
20260904150721 86 116 2.0 11.0 0.00 0.00 0.00 62 1012.6
20260904150632 86 115 2.0 11.0 0.00 0.00 0.00 62 1012.6
20260904150534 86 113 3.0 11.0 0.00 0.00 0.00 62 1012.6
20260904150416 86 117 4.0 11.0 0.00 0.00 0.00 62 1012.6
20260904150323 86 117 4.0 11.0 0.00 0.00 0.00 62 1012.6
20260904150231 86 117 4.0 9.0 0.00 0.00 0.00 63 1012.6
20260904150131 86 116 3.0 9.0 0.00 0.00 0.00 63 1012.5
20260904150052 86 116 2.0 8.0 0.00 0.00 0.00 63 1012.5
20260904145919 86 116 2.0 8.0 0.00 0.00 0.00 63 1012.6
20260904145829 86 116 2.0 8.0 0.00 0.00 0.00 63 1012.6
20260904145730 86 116 2.0 8.0 0.00 0.00 0.00 63 1012.5
20260904145639 86 116 2.0 8.0 0.00 0.00 0.00 63 1012.5
20260904145524 86 116 3.0 8.0 0.00 0.00 0.00 63 1012.6
20260904145425 86 116 3.0 8.0 0.00 0.00 0.00 63 1012.5
20260904145327 86 115 2.0 8.0 0.00 0.00 0.00 63 1012.6
20260904145237 86 115 2.0 8.0 0.00 0.00 0.00 64 1012.6
20260904145119 86 115 2.0 6.0 0.00 0.00 0.00 64 1012.6
20260904145029 86 114 2.0 6.0 0.00 0.00 0.00 64 1012.6
20260904144935 86 114 2.0 6.0 0.00 0.00 0.00 64 1012.6
20260904144838 86 114 2.0 6.0 0.00 0.00 0.00 64 1012.6
20260904144726 86 114 3.0 6.0 0.00 0.00 0.00 64 1012.7
20260904144629 85 114 2.0 6.0 0.00 0.00 0.00 64 1012.7
20260904144531 85 113 2.0 5.0 0.00 0.00 0.00 64 1012.7
20260904144439 85 113 2.0 5.0 0.00 0.00 0.00 64 1012.6
20260904144327 85 115 2.0 5.0 0.00 0.00 0.00 64 1012.7
20260904144249 85 115 2.0 5.0 0.00 0.00 0.00 64 1012.7
20260904144136 85 114 2.0 5.0 0.00 0.00 0.00 64 1012.6
20260904144017 85 114 2.0 5.0 0.00 0.00 0.00 64 1012.6
20260904143925 85 113 2.0 5.0 0.00 0.00 0.00 65 1012.6
20260904143825 85 113 2.0 5.0 0.00 0.00 0.00 65 1012.5
20260904143727 85 114 2.0 5.0 0.00 0.00 0.00 65 1012.5
20260904143620 85 113 2.0 5.0 0.00 0.00 0.00 65 1012.5
20260904143522 85 113 2.0 5.0 0.00 0.00 0.00 66 1012.5
20260904143441 85 114 2.0 3.0 0.00 0.00 0.00 66 1012.5
20260904143343 84 113 2.0 4.0 0.00 0.00 0.00 66 1012.4
20260904143252 84 113 2.0 5.0 0.00 0.00 0.00 66 1012.4
20260904143133 84 113 2.0 5.0 0.00 0.00 0.00 66 1012.5
20260904143034 84 114 2.0 5.0 0.00 0.00 0.00 67 1012.5
20260904142919 84 114 1.0 5.0 0.00 0.00 0.00 67 1012.5
20260904142830 84 114 1.0 5.0 0.00 0.00 0.00 67 1012.5
20260904142732 84 114 1.0 5.0 0.00 0.00 0.00 67 1012.5
20260904142632 83 114 1.0 5.0 0.00 0.00 0.00 67 1012.5
20260904142541 83 114 2.0 5.0 0.00 0.00 0.00 67 1012.5
20260904142423 83 114 1.0 5.0 0.00 0.00 0.00 68 1012.4
20260904142331 83 114 0.0 3.0 0.00 0.00 0.00 68 1012.4
20260904142232 83 114 1.0 3.0 0.00 0.00 0.00 68 1012.3
20260904142142 83 114 1.0 3.0 0.00 0.00 0.00 68 1012.4
20260904142022 83 114 1.0 3.0 0.00 0.00 0.00 68 1012.3
20260904141932 83 114 1.0 3.0 0.00 0.00 0.00 68 1012.3
20260904141834 82 114 1.0 3.0 0.00 0.00 0.00 69 1012.3
20260904141719 82 114 1.0 3.0 0.00 0.00 0.00 69 1012.3
20260904141627 82 114 1.0 3.0 0.00 0.00 0.00 69 1012.2
20260904141529 82 114 1.0 2.0 0.00 0.00 0.00 69 1012.2
20260904141437 82 114 0.0 2.0 0.00 0.00 0.00 69 1012.3
20260904141319 82 115 0.0 2.0 0.00 0.00 0.00 69 1012.3
20260904141220 82 115 0.0 2.0 0.00 0.00 0.00 69 1012.3
20260904141129 82 116 0.0 2.0 0.00 0.00 0.00 69 1012.3
20260904141016 82 360 0.0 2.0 0.00 0.00 0.00 69 1012.3
20260904140938 82 360 0.0 2.0 0.00 0.00 0.00 70 1012.3
20260904140826 82 360 0.0 2.0 0.00 0.00 0.00 70 1012.3
20260904140728 81 360 0.0 2.0 0.00 0.00 0.00 70 1012.3
20260904140629 81 360 0.0 2.0 0.00 0.00 0.00 70 1012.3
20260904140538 81 360 0.0 2.0 0.00 0.00 0.00 70 1012.3
20260904140418 81 360 0.0 2.0 0.00 0.00 0.00 70 1012.2
20260904140324 81 360 0.0 2.0 0.00 0.00 0.00 70 1012.2
20260904140232 81 360 0.0 2.0 0.00 0.00 0.00 70 1012.2
20260904140132 81 360 0.0 2.0 0.00 0.00 0.00 70 1012.2
20260904140032 81 360 0.0 2.0 0.00 0.00 0.00 70 1012.2
20260904135921 81 360 0.0 2.0 0.00 0.00 0.00 70 1012.2
20260904135851 81 360 0.0 2.0 0.00 0.00 0.00 70 1012.2
20260904135715 81 360 0.0 2.0 0.00 0.00 0.00 70 1012.2
20260904135618 81 360 0.0 2.0 0.00 0.00 0.00 70 1012.1
20260904135519 81 360 0.0 1.0 0.00 0.00 0.00 70 1012.0
20260904135429 81 360 0.0 1.0 0.00 0.00 0.00 70 1012.0
20260904135332 81 360 0.0 1.0 0.00 0.00 0.00 70 1012.1
20260904135234 81 360 0.0 1.0 0.00 0.00 0.00 70 1012.1
20260904135119 81 360 0.0 1.0 0.00 0.00 0.00 70 1012.0
20260904135030 80 360 0.0 2.0 0.00 0.00 0.00 70 1012.0
20260904134930 80 360 0.0 2.0 0.00 0.00 0.00 70 1011.9
20260904134840 80 360 0.0 2.0 0.00 0.00 0.00 70 1012.0
20260904134741 80 114 0.0 2.0 0.00 0.00 0.00 70 1011.9
20260904134622 80 114 0.0 2.0 0.00 0.00 0.00 70 1011.9
20260904134529 80 114 0.0 2.0 0.00 0.00 0.00 70 1011.9
20260904134439 80 114 0.0 2.0 0.00 0.00 0.00 70 1011.8
20260904134321 80 114 0.0 2.0 0.00 0.00 0.00 69 1011.8
20260904134243 80 114 0.0 2.0 0.00 0.00 0.00 69 1011.8
20260904134132 80 114 0.0 1.0 0.00 0.00 0.00 69 1011.8
20260904134033 80 114 0.0 1.0 0.00 0.00 0.00 69 1011.8
20260904133919 80 114 0.0 1.0 0.00 0.00 0.00 69 1011.9
20260904133818 80 114 0.0 1.0 0.00 0.00 0.00 69 1011.8
20260904133729 80 114 0.0 1.0 0.00 0.00 0.00 69 1011.8
20260904133630 80 114 0.0 1.0 0.00 0.00 0.00 69 1011.9
20260904133532 80 114 0.0 1.0 0.00 0.00 0.00 69 1011.9
20260904133441 80 114 0.0 1.0 0.00 0.00 0.00 69 1011.8
20260904133328 80 114 0.0 1.0 0.00 0.00 0.00 69 1011.9
20260904133229 80 114 0.0 1.0 0.00 0.00 0.00 69 1011.8
20260904133130 80 114 0.0 1.0 0.00 0.00 0.00 69 1011.8
20260904133039 80 114 0.0 1.0 0.00 0.00 0.00 69 1011.7
20260904132919 80 114 0.0 1.0 0.00 0.00 0.00 69 1011.7
20260904132820 80 114 0.0 1.0 0.00 0.00 0.00 69 1011.6
20260904132731 80 114 0.0 1.0 0.00 0.00 0.00 69 1011.6
20260904132617 80 114 0.0 1.0 0.00 0.00 0.00 69 1011.6
20260904132517 80 114 0.0 1.0 0.00 0.00 0.00 69 1011.6
20260904132429 80 114 0.0 1.0 0.00 0.00 0.00 69 1011.6
20260904132329 80 114 0.0 1.0 0.00 0.00 0.00 69 1011.6
20260904132229 80 114 0.0 1.0 0.00 0.00 0.00 69 1011.6
20260904132115 80 114 0.0 1.0 0.00 0.00 0.00 69 1011.5
20260904132025 80 114 0.0 1.0 0.00 0.00 0.00 69 1011.5
20260904131926 80 114 0.0 1.0 0.00 0.00 0.00 69 1011.5
20260904131828 80 115 0.0 1.0 0.00 0.00 0.00 68 1011.5
20260904131737 80 360 0.0 1.0 0.00 0.00 0.00 68 1011.4
20260904131620 80 360 0.0 1.0 0.00 0.00 0.00 68 1011.3
20260904131526 80 360 0.0 1.0 0.00 0.00 0.00 68 1011.4
20260904131426 80 360 0.0 1.0 0.00 0.00 0.00 68 1011.4
20260904131336 80 360 0.0 1.0 0.00 0.00 0.00 68 1011.4
20260904131218 80 360 0.0 1.0 0.00 0.00 0.00 68 1011.4
20260904131121 80 360 0.0 1.0 0.00 0.00 0.00 68 1011.4
20260904131024 80 360 0.0 1.0 0.00 0.00 0.00 68 1011.3
20260904130938 80 360 0.0 1.0 0.00 0.00 0.00 68 1011.3
20260904130819 81 360 0.0 1.0 0.00 0.00 0.00 68 1011.3
20260904130740 81 360 0.0 3.0 0.00 0.00 0.00 68 1011.4
20260904130630 81 360 0.0 3.0 0.00 0.00 0.00 68 1011.4
20260904130552 81 360 0.0 3.0 0.00 0.00 0.00 68 1011.3
20260904130441 81 360 0.0 3.0 0.00 0.00 0.00 68 1011.2
20260904130321 81 360 0.0 3.0 0.00 0.00 0.00 68 1011.1
20260904130235 81 360 0.0 3.0 0.00 0.00 0.00 68 1011.1
20260904130119 81 360 0.0 3.0 0.00 0.00 0.00 68 1011.2
20260904130033 81 360 1.0 3.0 0.00 0.00 0.00 68 1011.2
20260904125922 81 360 1.0 3.0 0.00 0.00 0.00 68 1011.1
20260904125833 81 360 0.0 2.0 0.00 0.00 0.00 68 1011.1
20260904125734 81 360 0.0 2.0 0.00 0.00 0.00 68 1011.1
20260904125618 81 360 0.0 2.0 0.00 0.00 0.00 68 1011.1
20260904125547 81 360 0.0 2.0 0.00 0.00 0.00 68 1011.1
20260904125455 81 360 0.0 2.0 0.00 0.00 0.00 68 1011.1
20260904125336 81 360 0.0 2.0 0.00 0.00 0.00 68 1011.1
20260904125245 81 360 0.0 2.0 0.00 0.00 0.00 68 1011.0
20260904125125 81 360 0.0 2.0 0.00 0.00 0.00 68 1011.0
20260904125035 81 360 0.0 1.0 0.00 0.00 0.00 68 1011.0
20260904124917 81 360 0.0 1.0 0.00 0.00 0.00 68 1011.1
20260904124824 81 360 0.0 2.0 0.00 0.00 0.00 68 1011.1
20260904124726 81 360 0.0 2.0 0.00 0.00 0.00 68 1011.0
20260904124635 81 360 0.0 2.0 0.00 0.00 0.00 68 1011.0
20260904124518 81 360 0.0 2.0 0.00 0.00 0.00 68 1011.0
20260904124421 81 360 0.0 2.0 0.00 0.00 0.00 68 1011.0
20260904124323 81 360 0.0 2.0 0.00 0.00 0.00 68 1011.0
20260904124235 81 360 0.0 2.0 0.00 0.00 0.00 68 1011.0
20260904124116 81 360 0.0 2.0 0.00 0.00 0.00 68 1011.0
20260904124045 81 360 0.0 2.0 0.00 0.00 0.00 68 1011.0
20260904123923 81 360 0.0 1.0 0.00 0.00 0.00 68 1011.0
20260904123824 81 360 0.0 1.0 0.00 0.00 0.00 68 1011.0
20260904123735 81 360 0.0 1.0 0.00 0.00 0.00 67 1011.0
20260904123622 81 360 0.0 0.0 0.00 0.00 0.00 67 1011.0
20260904123524 81 360 0.0 0.0 0.00 0.00 0.00 67 1011.0
20260904123433 81 360 0.0 0.0 0.00 0.00 0.00 67 1011.0
20260904123316 81 360 0.0 0.0 0.00 0.00 0.00 66 1011.0
20260904123218 81 360 0.0 1.0 0.00 0.00 0.00 66 1010.9
20260904123147 81 360 0.0 1.0 0.00 0.00 0.00 66 1010.8
20260904123028 81 360 0.0 1.0 0.00 0.00 0.00 66 1010.8
20260904122932 81 360 0.0 1.0 0.00 0.00 0.00 66 1010.9
20260904122840 81 360 0.0 1.0 0.00 0.00 0.00 66 1010.7
20260904122721 82 360 0.0 1.0 0.00 0.00 0.00 66 1010.7
20260904122652 81 360 0.0 1.0 0.00 0.00 0.00 65 1010.7
20260904122533 82 360 0.0 2.0 0.00 0.00 0.00 65 1010.8
20260904122433 82 360 0.0 2.0 0.00 0.00 0.00 65 1010.7
20260904122317 82 360 0.0 3.0 0.00 0.00 0.00 65 1010.8
20260904122226 82 360 0.0 3.0 0.00 0.00 0.00 65 1010.8
20260904122129 82 360 0.0 3.0 0.00 0.00 0.00 65 1010.8
20260904122029 82 360 0.0 3.0 0.00 0.00 0.00 64 1010.7
20260904121938 82 360 0.0 3.0 0.00 0.00 0.00 64 1010.8
20260904121819 82 360 1.0 3.0 0.00 0.00 0.00 64 1010.8
20260904121725 82 360 1.0 3.0 0.00 0.00 0.00 64 1010.8
20260904121634 82 360 1.0 3.0 0.00 0.00 0.00 64 1010.8
20260904121535 82 360 1.0 3.0 0.00 0.00 0.00 64 1010.8
20260904121416 82 360 0.0 1.0 0.00 0.00 0.00 63 1010.7
20260904121318 82 360 0.0 1.0 0.00 0.00 0.00 63 1010.7
20260904121229 82 360 0.0 1.0 0.00 0.00 0.00 63 1010.7
20260904121134 83 360 0.0 1.0 0.00 0.00 0.00 63 1010.7
20260904121017 83 360 0.0 1.0 0.00 0.00 0.00 63 1010.6
20260904120918 83 360 0.0 3.0 0.00 0.00 0.00 63 1010.6
20260904120847 83 360 0.0 3.0 0.00 0.00 0.00 63 1010.5
20260904120729 83 360 0.0 3.0 0.00 0.00 0.00 63 1010.5
20260904120638 83 360 0.0 3.0 0.00 0.00 0.00 63 1010.7
20260904120523 83 360 0.0 3.0 0.00 0.00 0.00 63 1010.7
20260904120423 83 360 0.0 3.0 0.00 0.00 0.00 62 1010.7
20260904120354 83 360 0.0 3.0 0.00 0.00 0.00 62 1010.7
20260904120254 83 360 0.0 3.0 0.00 0.00 0.00 62 1010.7
20260904120142 83 360 0.0 3.0 0.00 0.00 0.00 62 1010.7
20260904120034 83 360 1.0 3.0 0.00 0.00 0.00 62 1010.6
20260904115925 83 360 0.0 2.0 0.00 0.00 0.00 62 1010.7
20260904115839 83 360 0.0 1.0 0.00 0.00 0.00 62 1010.7
20260904115721 83 360 0.0 1.0 0.00 0.00 0.00 62 1010.8
20260904115624 83 360 0.0 1.0 0.00 0.00 0.00 62 1010.8
20260904115524 83 360 0.0 1.0 0.00 0.00 0.00 62 1010.8
20260904115435 83 360 0.0 1.0 0.00 0.00 0.00 62 1010.8
20260904115317 83 360 0.0 1.0 0.00 0.00 0.00 62 1010.7
20260904115222 83 360 0.0 1.0 0.00 0.00 0.00 61 1010.8
20260904115122 83 360 0.0 1.0 0.00 0.00 0.00 61 1010.7
20260904115033 83 360 0.0 1.0 0.00 0.00 0.00 61 1010.7
20260904114955 83 360 0.0 1.0 0.00 0.00 0.00 61 1010.6
20260904114843 83 360 0.0 1.0 0.00 0.00 0.00 61 1010.5
20260904114753 83 360 0.0 1.0 0.00 0.00 0.00 61 1010.5
20260904114633 83 360 0.0 1.0 0.00 0.00 0.00 61 1010.5
20260904114539 83 128 0.0 1.0 0.00 0.00 0.00 61 1010.6
20260904114447 83 360 0.0 1.0 0.00 0.00 0.00 61 1010.6
20260904114326 83 360 0.0 1.0 0.00 0.00 0.00 61 1010.4
20260904114236 84 360 0.0 1.0 0.00 0.00 0.00 61 1010.4
20260904114117 84 128 0.0 1.0 0.00 0.00 0.00 61 1010.5
20260904114047 84 128 0.0 1.0 0.00 0.00 0.00 61 1010.5
20260904113927 84 360 0.0 1.0 0.00 0.00 0.00 61 1010.5
20260904113829 84 360 0.0 1.0 0.00 0.00 0.00 60 1010.5
20260904113742 84 129 0.0 1.0 0.00 0.00 0.00 60 1010.6
20260904113643 84 129 0.0 1.0 0.00 0.00 0.00 60 1010.6
20260904113552 84 360 0.0 1.0 0.00 0.00 0.00 60 1010.6
20260904113433 84 360 0.0 1.0 0.00 0.00 0.00 60 1010.5
20260904113316 84 127 0.0 0.0 0.00 0.00 0.00 60 1010.5
20260904113217 84 127 0.0 0.0 0.00 0.00 0.00 60 1010.6
20260904113132 84 127 0.0 0.0 0.00 0.00 0.00 60 1010.6
20260904113101 84 127 0.0 0.0 0.00 0.00 0.00 60 1010.6
20260904112921 84 127 0.0 0.0 0.00 0.00 0.00 60 1010.6
20260904112843 84 127 0.0 0.0 0.00 0.00 0.00 60 1010.6
20260904112733 84 127 0.0 0.0 0.00 0.00 0.00 60 1010.6
20260904112616 84 127 0.0 0.0 0.00 0.00 0.00 60 1010.6
20260904112537 84 127 0.0 0.0 0.00 0.00 0.00 60 1010.6
20260904112430 84 127 0.0 0.0 0.00 0.00 0.00 60 1010.6
20260904112331 84 127 0.0 2.0 0.00 0.00 0.00 60 1010.6
20260904112240 84 127 0.0 2.0 0.00 0.00 0.00 60 1010.5
20260904112120 84 127 0.0 2.0 0.00 0.00 0.00 60 1010.6
20260904112050 84 127 0.0 2.0 0.00 0.00 0.00 60 1010.6
20260904111931 84 127 0.0 2.0 0.00 0.00 0.00 60 1010.7
20260904111858 84 127 0.0 2.0 0.00 0.00 0.00 60 1010.6
20260904111739 84 127 0.0 2.0 0.00 0.00 0.00 60 1010.6
20260904111646 84 127 0.0 2.0 0.00 0.00 0.00 60 1010.6
20260904111532 84 127 0.0 2.0 0.00 0.00 0.00 60 1010.6
20260904111440 84 127 0.0 1.0 0.00 0.00 0.00 60 1010.6
20260904111322 84 127 0.0 1.0 0.00 0.00 0.00 60 1010.6
20260904111223 84 127 0.0 1.0 0.00 0.00 0.00 60 1010.6
20260904111125 84 127 0.0 1.0 0.00 0.00 0.00 60 1010.6
20260904111055 84 128 0.0 1.0 0.00 0.00 0.00 60 1010.6
20260904110921 84 129 0.0 1.0 0.00 0.00 0.00 60 1010.7
20260904110822 84 128 0.0 1.0 0.00 0.00 0.00 60 1010.7
20260904110733 84 127 0.0 1.0 0.00 0.00 0.00 60 1010.7
20260904110616 84 128 0.0 1.0 0.00 0.00 0.00 60 1010.7
20260904110537 84 360 0.0 1.0 0.00 0.00 0.00 60 1010.7
20260904110425 84 360 0.0 1.0 0.00 0.00 0.00 60 1010.7
20260904110347 84 127 0.0 1.0 0.00 0.00 0.00 60 1010.7
20260904110220 84 127 0.0 1.0 0.00 0.00 0.00 60 1010.6
20260904110120 84 127 0.0 1.0 0.00 0.00 0.00 60 1010.7
20260904110034 84 127 0.0 1.0 0.00 0.00 0.00 60 1010.7
20260904105933 84 127 0.0 1.0 0.00 0.00 0.00 60 1010.7
20260904105816 84 127 0.0 1.0 0.00 0.00 0.00 60 1010.7
20260904105722 84 127 0.0 1.0 0.00 0.00 0.00 60 1010.6
20260904105632 84 127 0.0 1.0 0.00 0.00 0.00 60 1010.6
20260904105533 84 127 0.0 1.0 0.00 0.00 0.00 60 1010.6
20260904105416 84 127 0.0 1.0 0.00 0.00 0.00 59 1010.7
20260904105345 84 127 0.0 1.0 0.00 0.00 0.00 59 1010.6
20260904105225 84 127 0.0 1.0 0.00 0.00 0.00 59 1010.6
20260904105126 84 127 0.0 1.0 0.00 0.00 0.00 59 1010.6
20260904105040 84 127 0.0 3.0 0.00 0.00 0.00 59 1010.5
20260904104940 84 127 0.0 3.0 0.00 0.00 0.00 59 1010.5
20260904104828 84 127 0.0 3.0 0.00 0.00 0.00 59 1010.5
20260904104730 84 127 0.0 4.0 0.00 0.00 0.00 60 1010.6
20260904104632 84 127 0.0 4.0 0.00 0.00 0.00 60 1010.5
20260904104541 84 127 0.0 4.0 0.00 0.00 0.00 60 1010.6
20260904104421 84 127 0.0 4.0 0.00 0.00 0.00 61 1010.5
20260904104329 84 127 1.0 4.0 0.00 0.00 0.00 61 1010.5
20260904104236 84 127 2.0 4.0 0.00 0.00 0.00 61 1010.5
20260904104119 84 360 2.0 4.0 0.00 0.00 0.00 61 1010.4
20260904104021 83 360 1.0 4.0 0.00 0.00 0.00 61 1010.5
20260904103922 83 360 0.0 4.0 0.00 0.00 0.00 61 1010.4
20260904103831 84 128 0.0 2.0 0.00 0.00 0.00 61 1010.4
20260904103717 84 127 0.0 2.0 0.00 0.00 0.00 60 1010.4
20260904103625 84 127 0.0 2.0 0.00 0.00 0.00 61 1010.4
20260904103526 84 128 0.0 2.0 0.00 0.00 0.00 60 1010.4
20260904103429 84 128 0.0 2.0 0.00 0.00 0.00 60 1010.4
20260904103338 84 127 0.0 2.0 0.00 0.00 0.00 59 1010.4
20260904103219 84 127 0.0 1.0 0.00 0.00 0.00 58 1010.4
20260904103125 84 127 0.0 1.0 0.00 0.00 0.00 58 1010.4
20260904103035 84 127 0.0 1.0 0.00 0.00 0.00 58 1010.4
20260904102917 84 127 0.0 1.0 0.00 0.00 0.00 58 1010.4
20260904102818 84 127 0.0 1.0 0.00 0.00 0.00 58 1010.3
20260904102720 84 127 0.0 1.0 0.00 0.00 0.00 58 1010.4
20260904102629 84 127 0.0 0.0 0.00 0.00 0.00 58 1010.4
20260904102534 84 127 0.0 0.0 0.00 0.00 0.00 58 1010.4
20260904102416 84 128 0.0 0.0 0.00 0.00 0.00 58 1010.4
20260904102318 84 128 0.0 0.0 0.00 0.00 0.00 58 1010.4
20260904102228 84 128 0.0 0.0 0.00 0.00 0.00 58 1010.4
20260904102129 84 128 0.0 0.0 0.00 0.00 0.00 58 1010.3
20260904102038 84 360 0.0 0.0 0.00 0.00 0.00 58 1010.3
20260904101924 84 360 0.0 0.0 0.00 0.00 0.00 58 1010.2
20260904101825 84 360 0.0 0.0 0.00 0.00 0.00 58 1010.2
20260904101726 84 360 0.0 0.0 0.00 0.00 0.00 58 1010.1
20260904101635 84 360 0.0 0.0 0.00 0.00 0.00 58 1010.1
20260904101605 84 360 0.0 0.0 0.00 0.00 0.00 58 1010.1
20260904101420 84 360 0.0 0.0 0.00 0.00 0.00 58 1010.2
20260904101322 84 360 0.0 0.0 0.00 0.00 0.00 59 1010.2
20260904101233 84 360 0.0 0.0 0.00 0.00 0.00 59 1010.2
20260904101115 84 360 0.0 0.0 0.00 0.00 0.00 59 1010.1
20260904101018 84 360 0.0 0.0 0.00 0.00 0.00 59 1010.2
20260904100920 84 360 0.0 0.0 0.00 0.00 0.00 59 1010.1
20260904100829 84 360 0.0 0.0 0.00 0.00 0.00 59 1010.1
20260904100732 84 360 0.0 0.0 0.00 0.00 0.00 59 1010.1
20260904100618 84 360 0.0 0.0 0.00 0.00 0.00 60 1010.1
20260904100520 84 360 0.0 0.0 0.00 0.00 0.00 59 1010.0
20260904100430 84 360 0.0 0.0 0.00 0.00 0.00 59 1010.0
20260904100333 84 360 0.0 0.0 0.00 0.00 0.00 59 1010.1
20260904100235 84 128 0.0 0.0 0.00 0.00 0.00 59 1010.1
20260904100117 84 127 0.0 0.0 0.00 0.00 0.00 59 1010.1
20260904095939 84 127 0.0 1.0 0.00 0.00 0.00 59 1010.0
20260904095841 84 127 0.0 1.0 0.00 0.00 0.00 59 1010.0
20260904095722 84 127 0.0 1.0 0.00 0.00 0.00 59 1010.1
20260904095632 84 128 0.0 1.0 0.00 0.00 0.00 59 1010.1
20260904095534 84 128 0.0 1.0 0.00 0.00 0.00 59 1010.1
20260904095420 84 128 0.0 1.0 0.00 0.00 0.00 59 1010.1
20260904095322 84 127 0.0 1.0 0.00 0.00 0.00 60 1010.0
20260904095233 84 127 0.0 1.0 0.00 0.00 0.00 60 1010.0
20260904095134 84 127 0.0 1.0 0.00 0.00 0.00 60 1010.0
20260904095018 84 127 0.0 0.0 0.00 0.00 0.00 60 1010.0
20260904094919 84 127 0.0 0.0 0.00 0.00 0.00 60 1010.0
20260904094833 84 127 0.0 0.0 0.00 0.00 0.00 60 1010.0
20260904094735 84 127 0.0 0.0 0.00 0.00 0.00 60 1010.0
20260904094618 84 128 0.0 0.0 0.00 0.00 0.00 60 1010.0
20260904094519 84 128 0.0 0.0 0.00 0.00 0.00 60 1009.9
20260904094429 84 128 0.0 0.0 0.00 0.00 0.00 59 1009.9
20260904094336 84 127 0.0 0.0 0.00 0.00 0.00 59 1009.9
20260904094216 84 128 0.0 0.0 0.00 0.00 0.00 59 1009.9
20260904094121 84 128 0.0 0.0 0.00 0.00 0.00 59 1010.0
20260904094031 84 128 0.0 0.0 0.00 0.00 0.00 59 1010.0
20260904093934 84 128 0.0 0.0 0.00 0.00 0.00 60 1010.0
20260904093817 84 128 0.0 0.0 0.00 0.00 0.00 60 1010.0
20260904093718 84 127 0.0 0.0 0.00 0.00 0.00 59 1010.0
20260904093647 84 127 0.0 0.0 0.00 0.00 0.00 59 1010.1
20260904093534 84 127 0.0 0.0 0.00 0.00 0.00 59 1010.1
20260904093419 84 127 0.0 0.0 0.00 0.00 0.00 59 1010.0
20260904093349 84 127 0.0 0.0 0.00 0.00 0.00 59 1010.0
20260904093249 84 127 0.0 0.0 0.00 0.00 0.00 59 1010.1
20260904093137 84 128 0.0 0.0 0.00 0.00 0.00 60 1010.1
20260904093018 84 128 0.0 0.0 0.00 0.00 0.00 60 1010.0
20260904092925 84 127 0.0 0.0 0.00 0.00 0.00 60 1010.1
20260904092826 84 127 0.0 0.0 0.00 0.00 0.00 60 1010.1
20260904092735 84 127 0.0 0.0 0.00 0.00 0.00 60 1010.1
20260904092622 84 127 0.0 0.0 0.00 0.00 0.00 60 1010.1
20260904092524 84 127 0.0 0.0 0.00 0.00 0.00 59 1010.1
20260904092454 84 128 0.0 0.0 0.00 0.00 0.00 59 1010.1
20260904092316 84 360 0.0 0.0 0.00 0.00 0.00 59 1010.0
20260904092238 84 129 0.0 1.0 0.00 0.00 0.00 59 1010.0
20260904092126 84 129 0.0 1.0 0.00 0.00 0.00 60 1010.0
20260904092033 84 129 0.0 1.0 0.00 0.00 0.00 60 1010.0
20260904091935 84 128 0.0 1.0 0.00 0.00 0.00 60 1010.0
20260904091842 84 127 0.0 1.0 0.00 0.00 0.00 60 1010.0
20260904091728 84 127 0.0 1.0 0.00 0.00 0.00 60 1010.0
20260904091628 84 127 0.0 1.0 0.00 0.00 0.00 60 1010.0
20260904091536 84 127 0.0 1.0 0.00 0.00 0.00 60 1009.9
20260904091418 84 129 0.0 1.0 0.00 0.00 0.00 60 1010.0
20260904091317 84 129 0.0 1.0 0.00 0.00 0.00 60 1010.0
20260904091251 84 127 0.0 1.0 0.00 0.00 0.00 60 1010.0
20260904091132 84 127 0.0 1.0 0.00 0.00 0.00 60 1010.0
20260904091042 84 128 0.0 1.0 0.00 0.00 0.00 60 1010.0
20260904090923 84 128 0.0 1.0 0.00 0.00 0.00 60 1010.0
20260904090846 84 126 0.0 1.0 0.00 0.00 0.00 60 1009.9
20260904090755 84 127 0.0 1.0 0.00 0.00 0.00 60 1009.9
20260904090615 84 126 0.0 1.0 0.00 0.00 0.00 60 1009.9
20260904090550 83 126 0.0 1.0 0.00 0.00 0.00 60 1009.9
20260904090431 83 126 0.0 1.0 0.00 0.00 0.00 60 1009.9
20260904090341 84 126 0.0 1.0 0.00 0.00 0.00 60 1009.9
20260904090241 84 127 0.0 1.0 0.00 0.00 0.00 60 1010.0
20260904090122 84 127 0.0 0.0 0.00 0.00 0.00 60 1010.0
20260904090043 84 126 0.0 0.0 0.00 0.00 0.00 59 1010.0
20260904085918 84 127 0.0 0.0 0.00 0.00 0.00 59 1010.0
20260904085820 84 126 0.0 0.0 0.00 0.00 0.00 59 1009.9
20260904085722 84 127 0.0 0.0 0.00 0.00 0.00 58 1009.9
20260904085633 84 127 0.0 0.0 0.00 0.00 0.00 59 1009.9
20260904085534 84 127 0.0 0.0 0.00 0.00 0.00 59 1009.9
20260904085416 84 126 0.0 0.0 0.00 0.00 0.00 59 1009.8
20260904085329 84 126 0.0 0.0 0.00 0.00 0.00 59 1009.8
20260904085232 84 126 0.0 0.0 0.00 0.00 0.00 59 1009.8
20260904085134 85 126 0.0 0.0 0.00 0.00 0.00 59 1009.9
20260904085040 85 126 0.0 0.0 0.00 0.00 0.00 59 1009.8
20260904084924 85 126 0.0 0.0 0.00 0.00 0.00 59 1009.9
20260904084826 85 126 0.0 0.0 0.00 0.00 0.00 59 1009.9
20260904084733 85 126 0.0 0.0 0.00 0.00 0.00 59 1009.9
20260904084641 85 126 0.0 0.0 0.00 0.00 0.00 59 1009.9
20260904084523 85 126 0.0 0.0 0.00 0.00 0.00 59 1010.0
20260904084425 85 126 0.0 0.0 0.00 0.00 0.00 59 1009.9
20260904084326 85 360 0.0 0.0 0.00 0.00 0.00 59 1009.9
20260904084237 85 126 0.0 0.0 0.00 0.00 0.00 59 1009.9
20260904084123 85 126 0.0 0.0 0.00 0.00 0.00 59 1010.0
20260904084023 85 126 0.0 0.0 0.00 0.00 0.00 58 1010.0
20260904083925 85 126 0.0 0.0 0.00 0.00 0.00 59 1010.0
20260904083834 85 126 0.0 0.0 0.00 0.00 0.00 58 1010.0
20260904083715 85 128 0.0 0.0 0.00 0.00 0.00 58 1010.0
20260904083618 85 360 0.0 0.0 0.00 0.00 0.00 58 1010.0
20260904083524 85 360 0.0 1.0 0.00 0.00 0.00 59 1009.9
20260904083434 85 360 0.0 1.0 0.00 0.00 0.00 59 1009.9
20260904083315 85 360 0.0 1.0 0.00 0.00 0.00 59 1010.1
20260904083218 85 360 0.0 1.0 0.00 0.00 0.00 59 1010.0
20260904083120 85 360 0.0 1.0 0.00 0.00 0.00 59 1010.0
20260904083031 85 360 0.0 1.0 0.00 0.00 0.00 58 1010.0
20260904082917 85 360 0.0 1.0 0.00 0.00 0.00 58 1010.0
20260904082817 85 360 0.0 2.0 0.00 0.00 0.00 58 1010.0
20260904082718 85 360 0.0 2.0 0.00 0.00 0.00 58 1010.1
20260904082629 85 360 0.0 2.0 0.00 0.00 0.00 58 1010.1
20260904082528 85 360 0.0 2.0 0.00 0.00 0.00 58 1010.0
20260904082439 85 360 0.0 2.0 0.00 0.00 0.00 58 1010.0
20260904082323 85 360 0.0 2.0 0.00 0.00 0.00 58 1010.1
20260904082233 85 360 0.0 2.0 0.00 0.00 0.00 58 1010.1
20260904082133 85 360 1.0 2.0 0.00 0.00 0.00 58 1010.1
20260904082042 85 360 1.0 2.0 0.00 0.00 0.00 58 1010.0
20260904081923 85 360 0.0 2.0 0.00 0.00 0.00 58 1010.1
20260904081825 85 360 0.0 1.0 0.00 0.00 0.00 58 1010.2
20260904081735 85 360 0.0 1.0 0.00 0.00 0.00 58 1010.2
20260904081641 85 360 0.0 0.0 0.00 0.00 0.00 58 1010.2
20260904081528 85 360 0.0 2.0 0.00 0.00 0.00 58 1010.2
20260904081429 85 360 0.0 3.0 0.00 0.00 0.00 57 1010.2
20260904081333 85 360 0.0 5.0 0.00 0.00 0.00 57 1010.3
20260904081215 85 360 0.0 5.0 0.00 0.00 0.00 57 1010.2
20260904081125 85 360 0.0 5.0 0.00 0.00 0.00 57 1010.1
20260904081046 85 360 0.0 5.0 0.00 0.00 0.00 57 1010.2
20260904080918 86 360 0.0 5.0 0.00 0.00 0.00 57 1010.2
20260904080819 86 360 1.0 5.0 0.00 0.00 0.00 57 1010.2
20260904080749 86 360 2.0 5.0 0.00 0.00 0.00 56 1010.2
20260904080629 86 360 2.0 5.0 0.00 0.00 0.00 56 1010.2
20260904080532 86 360 2.0 5.0 0.00 0.00 0.00 56 1010.2
20260904080419 86 360 2.0 4.0 0.00 0.00 0.00 56 1010.1
20260904080321 86 360 2.0 4.0 0.00 0.00 0.00 56 1010.1
20260904080228 86 360 2.0 4.0 0.00 0.00 0.00 56 1010.1
20260904080136 86 360 1.0 4.0 0.00 0.00 0.00 56 1010.1
20260904080030 86 360 0.0 6.0 0.00 0.00 0.00 56 1010.1
20260904075918 86 360 2.0 6.0 0.00 0.00 0.00 56 1010.1
20260904075826 86 360 2.0 6.0 0.00 0.00 0.00 56 1010.2
20260904075729 86 360 2.0 6.0 0.00 0.00 0.00 56 1010.2
20260904075616 86 360 3.0 6.0 0.00 0.00 0.00 56 1010.2
20260904075525 86 360 2.0 6.0 0.00 0.00 0.00 56 1010.2
20260904075429 86 360 2.0 6.0 0.00 0.00 0.00 55 1010.2
20260904075331 86 360 3.0 6.0 0.00 0.00 0.00 55 1010.2
20260904075239 86 360 3.0 6.0 0.00 0.00 0.00 55 1010.3
20260904075121 86 360 2.0 4.0 0.00 0.00 0.00 55 1010.2
20260904075029 86 360 2.0 4.0 0.00 0.00 0.00 55 1010.2
20260904074929 86 360 2.0 4.0 0.00 0.00 0.00 54 1010.2
20260904074836 86 360 2.0 3.0 0.00 0.00 0.00 54 1010.1
20260904074719 86 360 1.0 2.0 0.00 0.00 0.00 54 1010.0
20260904074640 86 360 0.0 1.0 0.00 0.00 0.00 53 1010.0
20260904074529 86 360 0.0 1.0 0.00 0.00 0.00 53 1010.0
20260904074416 86 360 0.0 1.0 0.00 0.00 0.00 53 1010.1
20260904074318 87 360 0.0 1.0 0.00 0.00 0.00 53 1010.1
20260904074229 87 360 0.0 1.0 0.00 0.00 0.00 53 1010.1
20260904074128 87 360 0.0 1.0 0.00 0.00 0.00 53 1010.1
20260904074057 86 360 0.0 1.0 0.00 0.00 0.00 53 1010.1
20260904073918 86 360 0.0 0.0 0.00 0.00 0.00 53 1009.9
20260904073839 86 360 0.0 0.0 0.00 0.00 0.00 53 1010.0
20260904073733 86 360 0.0 0.0 0.00 0.00 0.00 53 1010.0
20260904073634 86 360 0.0 0.0 0.00 0.00 0.00 53 1009.9
20260904073517 86 360 0.0 0.0 0.00 0.00 0.00 53 1010.0
20260904073419 87 360 0.0 0.0 0.00 0.00 0.00 53 1009.9
20260904073330 87 360 0.0 0.0 0.00 0.00 0.00 53 1009.9
20260904073252 86 360 0.0 0.0 0.00 0.00 0.00 53 1009.9
20260904073116 86 360 0.0 0.0 0.00 0.00 0.00 53 1009.9
20260904073046 87 360 0.0 0.0 0.00 0.00 0.00 53 1010.0
20260904072926 87 360 0.0 0.0 0.00 0.00 0.00 53 1010.0
20260904072834 87 360 0.0 0.0 0.00 0.00 0.00 53 1010.0
20260904072716 87 360 0.0 0.0 0.00 0.00 0.00 53 1010.0
20260904072617 87 360 0.0 0.0 0.00 0.00 0.00 52 1010.1
20260904072533 87 360 0.0 0.0 0.00 0.00 0.00 52 1010.1
20260904072434 87 360 0.0 0.0 0.00 0.00 0.00 52 1010.1
20260904072336 87 360 0.0 0.0 0.00 0.00 0.00 53 1010.1
20260904072217 87 360 0.0 0.0 0.00 0.00 0.00 53 1010.1
20260904072128 87 360 0.0 0.0 0.00 0.00 0.00 52 1010.1
20260904072029 87 360 0.0 0.0 0.00 0.00 0.00 52 1010.1
20260904071933 87 360 0.0 0.0 0.00 0.00 0.00 52 1010.0
20260904071815 87 360 0.0 0.0 0.00 0.00 0.00 51 1010.1
20260904071747 88 360 0.0 0.0 0.00 0.00 0.00 51 1010.1
20260904071528 88 360 0.0 0.0 0.00 0.00 0.00 51 1010.1
20260904071429 88 360 0.0 0.0 0.00 0.00 0.00 51 1010.0
20260904071338 87 360 0.0 0.0 0.00 0.00 0.00 51 1010.0
20260904071224 87 360 0.0 0.0 0.00 0.00 0.00 51 1010.0
20260904071125 87 360 0.0 0.0 0.00 0.00 0.00 51 1010.0
20260904071025 87 360 0.0 0.0 0.00 0.00 0.00 52 1010.0
20260904070935 87 360 0.0 0.0 0.00 0.00 0.00 51 1010.0
20260904070837 87 360 0.0 0.0 0.00 0.00 0.00 51 1010.0
20260904070718 87 360 0.0 0.0 0.00 0.00 0.00 51 1010.0
20260904070632 87 360 0.0 0.0 0.00 0.00 0.00 52 1010.0
20260904070530 88 360 0.0 0.0 0.00 0.00 0.00 52 1010.0
20260904070433 88 360 0.0 0.0 0.00 0.00 0.00 51 1010.0
20260904070340 88 360 0.0 0.0 0.00 0.00 0.00 51 1010.0
20260904070223 88 360 0.0 0.0 0.00 0.00 0.00 51 1010.0
20260904070125 88 360 0.0 0.0 0.00 0.00 0.00 51 1010.0
20260904070051 88 360 0.0 0.0 0.00 0.00 0.00 51 1010.0
20260904065919 88 360 0.0 0.0 0.00 0.00 0.00 51 1010.0
20260904065828 88 360 0.0 0.0 0.00 0.00 0.00 51 1010.0
20260904065729 88 360 0.0 0.0 0.00 0.00 0.00 51 1010.1
20260904065638 88 360 0.0 0.0 0.00 0.00 0.00 51 1010.0
20260904065520 88 360 0.0 0.0 0.00 0.00 0.00 51 1010.1
20260904065452 88 360 0.0 0.0 0.00 0.00 0.00 51 1010.1
20260904065332 88 360 0.0 0.0 0.00 0.00 0.00 52 1010.1
20260904065217 88 360 0.0 0.0 0.00 0.00 0.00 52 1010.0
20260904065119 88 360 0.0 0.0 0.00 0.00 0.00 52 1010.0
20260904065049 88 360 0.0 0.0 0.00 0.00 0.00 51 1010.0
20260904064929 88 360 0.0 0.0 0.00 0.00 0.00 51 1010.0
20260904064838 88 360 0.0 0.0 0.00 0.00 0.00 52 1010.0
20260904064718 88 360 0.0 0.0 0.00 0.00 0.00 52 1010.0
20260904064624 88 360 0.0 2.0 0.00 0.00 0.00 52 1010.0
20260904064524 88 360 0.0 2.0 0.00 0.00 0.00 52 1010.0
20260904064433 88 360 0.0 2.0 0.00 0.00 0.00 52 1010.0
20260904064334 88 360 0.0 2.0 0.00 0.00 0.00 52 1010.0
20260904064243 88 360 0.0 2.0 0.00 0.00 0.00 52 1010.0
20260904064123 88 360 0.0 2.0 0.00 0.00 0.00 52 1009.9
20260904064030 88 360 0.0 2.0 0.00 0.00 0.00 52 1009.9
20260904063959 88 360 0.0 2.0 0.00 0.00 0.00 52 1009.9
20260904063819 88 360 0.0 2.0 0.00 0.00 0.00 52 1009.9
20260904063721 88 360 0.0 2.0 0.00 0.00 0.00 52 1010.0
20260904063632 88 360 0.0 2.0 0.00 0.00 0.00 52 1010.0
20260904063532 88 360 0.0 3.0 0.00 0.00 0.00 52 1010.0
20260904063433 88 360 0.0 3.0 0.00 0.00 0.00 52 1009.9
20260904063315 88 360 0.0 3.0 0.00 0.00 0.00 52 1010.0
20260904063222 88 360 0.0 3.0 0.00 0.00 0.00 52 1009.9
20260904063124 88 360 0.0 3.0 0.00 0.00 0.00 52 1009.9
20260904063035 88 360 0.0 3.0 0.00 0.00 0.00 52 1009.9
20260904062937 88 360 1.0 3.0 0.00 0.00 0.00 51 1009.8
20260904062846 88 360 1.0 3.0 0.00 0.00 0.00 51 1009.8
20260904062728 88 360 1.0 3.0 0.00 0.00 0.00 51 1009.8
20260904062701 88 360 0.0 1.0 0.00 0.00 0.00 51 1009.8
20260904062543 88 360 0.0 0.0 0.00 0.00 0.00 51 1009.8
20260904062423 88 360 0.0 0.0 0.00 0.00 0.00 51 1009.8
20260904062353 88 360 0.0 2.0 0.00 0.00 0.00 50 1009.8
20260904062239 88 360 0.0 2.0 0.00 0.00 0.00 50 1009.8
20260904062120 88 360 0.0 2.0 0.00 0.00 0.00 50 1009.8
20260904062049 88 360 0.0 2.0 0.00 0.00 0.00 50 1009.8
20260904061932 88 360 0.0 2.0 0.00 0.00 0.00 50 1009.8
20260904061842 89 360 0.0 2.0 0.00 0.00 0.00 50 1009.6
20260904061724 89 360 0.0 4.0 0.00 0.00 0.00 50 1009.8
20260904061646 89 360 0.0 4.0 0.00 0.00 0.00 50 1009.7
20260904061556 89 360 1.0 4.0 0.00 0.00 0.00 49 1009.7
20260904061415 89 360 0.0 4.0 0.00 0.00 0.00 49 1009.6
20260904061317 89 360 0.0 4.0 0.00 0.00 0.00 49 1009.6
20260904061226 89 360 0.0 4.0 0.00 0.00 0.00 49 1009.6
20260904061132 89 360 0.0 4.0 0.00 0.00 0.00 49 1009.6
20260904061034 89 360 1.0 4.0 0.00 0.00 0.00 49 1009.6
20260904060916 89 360 1.0 4.0 0.00 0.00 0.00 49 1009.6
20260904060845 89 360 0.0 3.0 0.00 0.00 0.00 49 1009.6
20260904060724 89 360 1.0 3.0 0.00 0.00 0.00 49 1009.6
20260904060635 89 360 1.0 3.0 0.00 0.00 0.00 49 1009.6
20260904060521 89 360 0.0 3.0 0.00 0.00 0.00 49 1009.6
20260904060423 89 360 1.0 3.0 0.00 0.00 0.00 49 1009.6
20260904060354 89 360 1.0 3.0 0.00 0.00 0.00 49 1009.6
20260904060238 89 360 2.0 3.0 0.00 0.00 0.00 49 1009.6
20260904060119 89 360 1.0 3.0 0.00 0.00 0.00 49 1009.5
20260904060033 89 360 1.0 3.0 0.00 0.00 0.00 49 1009.5
20260904055950 89 360 1.0 2.0 0.00 0.00 0.00 49 1009.5
20260904055850 89 360 1.0 2.0 0.00 0.00 0.00 49 1009.5
20260904055722 89 360 0.0 1.0 0.00 0.00 0.00 49 1009.4
20260904055624 89 360 0.0 1.0 0.00 0.00 0.00 49 1009.4
20260904055526 89 360 0.0 1.0 0.00 0.00 0.00 49 1009.4
20260904055437 89 360 0.0 1.0 0.00 0.00 0.00 49 1009.4
20260904055320 89 360 0.0 1.0 0.00 0.00 0.00 49 1009.4
20260904055225 89 360 0.0 1.0 0.00 0.00 0.00 49 1009.5
20260904055133 89 360 0.0 1.0 0.00 0.00 0.00 49 1009.5
20260904055015 89 360 0.0 1.0 0.00 0.00 0.00 49 1009.5
20260904054917 89 360 0.0 1.0 0.00 0.00 0.00 49 1009.6
20260904054847 89 360 0.0 2.0 0.00 0.00 0.00 49 1009.6
20260904054729 89 360 0.0 2.0 0.00 0.00 0.00 49 1009.5
20260904054631 89 360 0.0 2.0 0.00 0.00 0.00 48 1009.5
20260904054543 89 360 0.0 3.0 0.00 0.00 0.00 49 1009.5
20260904054424 89 360 0.0 3.0 0.00 0.00 0.00 49 1009.6
20260904054332 89 360 0.0 3.0 0.00 0.00 0.00 49 1009.6
20260904054303 89 360 0.0 3.0 0.00 0.00 0.00 49 1009.6
20260904054115 89 360 0.0 3.0 0.00 0.00 0.00 48 1009.6
20260904054023 89 360 0.0 3.0 0.00 0.00 0.00 48 1009.6
20260904053925 89 360 0.0 3.0 0.00 0.00 0.00 48 1009.5
20260904053839 89 360 1.0 4.0 0.00 0.00 0.00 48 1009.5
20260904053721 89 360 1.0 4.0 0.00 0.00 0.00 48 1009.6
20260904053642 89 360 1.0 4.0 0.00 0.00 0.00 48 1009.5
20260904053533 89 360 0.0 4.0 0.00 0.00 0.00 48 1009.5
20260904053433 89 360 1.0 4.0 0.00 0.00 0.00 48 1009.5
20260904053342 89 360 1.0 4.0 0.00 0.00 0.00 48 1009.6
20260904053224 89 360 1.0 4.0 0.00 0.00 0.00 49 1009.6
20260904053132 89 360 2.0 4.0 0.00 0.00 0.00 49 1009.6
20260904053033 89 360 1.0 4.0 0.00 0.00 0.00 48 1009.5
20260904052941 89 360 1.0 4.0 0.00 0.00 0.00 48 1009.5
20260904052823 89 360 1.0 4.0 0.00 0.00 0.00 48 1009.5
20260904052724 89 360 1.0 4.0 0.00 0.00 0.00 49 1009.5
20260904052626 89 360 1.0 4.0 0.00 0.00 0.00 48 1009.5
20260904052540 89 360 1.0 4.0 0.00 0.00 0.00 48 1009.5
20260904052422 89 360 1.0 3.0 0.00 0.00 0.00 48 1009.5
20260904052325 89 360 1.0 3.0 0.00 0.00 0.00 48 1009.4
20260904052226 89 360 0.0 3.0 0.00 0.00 0.00 48 1009.5
20260904052136 89 360 0.0 3.0 0.00 0.00 0.00 48 1009.5
20260904052023 89 360 0.0 3.0 0.00 0.00 0.00 48 1009.4
20260904051924 89 360 1.0 3.0 0.00 0.00 0.00 48 1009.5
20260904051832 89 360 1.0 4.0 0.00 0.00 0.00 48 1009.5
20260904051739 89 360 1.0 4.0 0.00 0.00 0.00 48 1009.5
20260904051622 89 360 1.0 4.0 0.00 0.00 0.00 48 1009.5
20260904051524 89 360 1.0 4.0 0.00 0.00 0.00 48 1009.5
20260904051454 90 360 1.0 4.0 0.00 0.00 0.00 48 1009.5
20260904051351 90 360 0.0 4.0 0.00 0.00 0.00 48 1009.6
20260904051216 90 360 0.0 4.0 0.00 0.00 0.00 48 1009.6
20260904051144 90 360 1.0 4.0 0.00 0.00 0.00 48 1009.6
20260904051026 90 360 1.0 4.0 0.00 0.00 0.00 48 1009.6
20260904050937 90 360 1.0 3.0 0.00 0.00 0.00 48 1009.6
20260904050819 90 360 1.0 3.0 0.00 0.00 0.00 47 1009.6
20260904050721 90 360 1.0 4.0 0.00 0.00 0.00 48 1009.5
20260904050627 90 360 1.0 4.0 0.00 0.00 0.00 47 1009.5
20260904050537 90 360 1.0 4.0 0.00 0.00 0.00 47 1009.5
20260904050439 90 360 1.0 4.0 0.00 0.00 0.00 47 1009.4
20260904050329 90 360 1.0 4.0 0.00 0.00 0.00 47 1009.4
20260904050226 90 360 1.0 4.0 0.00 0.00 0.00 47 1009.4
20260904050136 90 360 1.0 4.0 0.00 0.00 0.00 47 1009.4
20260904050029 90 360 1.0 4.0 0.00 0.00 0.00 47 1009.4
20260904045923 90 360 1.0 4.0 0.00 0.00 0.00 47 1009.4
20260904045824 90 360 0.0 4.0 0.00 0.00 0.00 47 1009.5
20260904045734 90 360 0.0 4.0 0.00 0.00 0.00 48 1009.5
20260904045635 90 360 1.0 4.0 0.00 0.00 0.00 48 1009.4
20260904045517 90 360 2.0 4.0 0.00 0.00 0.00 48 1009.4
20260904045418 90 360 1.0 3.0 0.00 0.00 0.00 48 1009.4
20260904045332 90 360 0.0 3.0 0.00 0.00 0.00 48 1009.4
20260904045232 90 360 0.0 3.0 0.00 0.00 0.00 48 1009.4
20260904045141 90 360 0.0 3.0 0.00 0.00 0.00 48 1009.3
20260904045023 90 360 1.0 3.0 0.00 0.00 0.00 48 1009.4
20260904044943 90 360 1.0 4.0 0.00 0.00 0.00 48 1009.3
20260904044832 90 360 0.0 4.0 0.00 0.00 0.00 48 1009.3
20260904044718 90 360 0.0 4.0 0.00 0.00 0.00 48 1009.3
20260904044621 90 360 0.0 4.0 0.00 0.00 0.00 48 1009.4
20260904044522 90 360 0.0 4.0 0.00 0.00 0.00 48 1009.4
20260904044452 90 360 1.0 4.0 0.00 0.00 0.00 48 1009.4
20260904044331 90 360 2.0 4.0 0.00 0.00 0.00 48 1009.4
20260904044239 90 360 2.0 4.0 0.00 0.00 0.00 48 1009.3
20260904044142 90 360 1.0 4.0 0.00 0.00 0.00 48 1009.3
20260904044033 90 360 1.0 3.0 0.00 0.00 0.00 48 1009.3
20260904043934 90 360 0.0 3.0 0.00 0.00 0.00 48 1009.3
20260904043822 90 360 0.0 3.0 0.00 0.00 0.00 48 1009.3
20260904043724 90 360 0.0 3.0 0.00 0.00 0.00 48 1009.2
20260904043654 90 360 1.0 3.0 0.00 0.00 0.00 48 1009.2
20260904043535 90 360 1.0 3.0 0.00 0.00 0.00 48 1009.2
20260904043417 90 360 1.0 3.0 0.00 0.00 0.00 48 1009.2
20260904043323 90 360 1.0 3.0 0.00 0.00 0.00 48 1009.2
20260904043233 90 360 0.0 3.0 0.00 0.00 0.00 48 1009.2
20260904043133 90 360 0.0 3.0 0.00 0.00 0.00 48 1009.3
20260904043102 90 360 1.0 3.0 0.00 0.00 0.00 48 1009.2
20260904042923 90 360 1.0 3.0 0.00 0.00 0.00 48 1009.3
20260904042825 90 360 1.0 3.0 0.00 0.00 0.00 48 1009.3
20260904042732 90 360 0.0 3.0 0.00 0.00 0.00 48 1009.3
20260904042641 90 360 0.0 3.0 0.00 0.00 0.00 48 1009.3
20260904042522 90 360 1.0 3.0 0.00 0.00 0.00 48 1009.4
20260904042423 90 360 1.0 3.0 0.00 0.00 0.00 48 1009.2
20260904042324 90 360 1.0 3.0 0.00 0.00 0.00 48 1009.3
20260904042234 90 360 1.0 3.0 0.00 0.00 0.00 48 1009.3
20260904042121 90 360 1.0 3.0 0.00 0.00 0.00 48 1009.2
20260904042021 90 360 2.0 3.0 0.00 0.00 0.00 48 1009.3
20260904041949 90 360 1.0 3.0 0.00 0.00 0.00 48 1009.2
20260904041832 90 360 1.0 4.0 0.00 0.00 0.00 48 1009.2
20260904041739 90 360 1.0 4.0 0.00 0.00 0.00 48 1009.2
20260904041622 90 360 1.0 4.0 0.00 0.00 0.00 48 1009.2
20260904041529 90 360 1.0 4.0 0.00 0.00 0.00 48 1009.1
20260904041428 90 360 2.0 4.0 0.00 0.00 0.00 48 1009.2
20260904041338 90 360 2.0 4.0 0.00 0.00 0.00 48 1009.2
20260904041220 90 360 2.0 4.0 0.00 0.00 0.00 48 1009.2
20260904041123 90 360 2.0 4.0 0.00 0.00 0.00 48 1009.1
20260904041026 90 360 2.0 4.0 0.00 0.00 0.00 48 1009.1
20260904040918 90 360 2.0 4.0 0.00 0.00 0.00 48 1009.1
20260904040820 90 360 2.0 4.0 0.00 0.00 0.00 48 1009.1
20260904040722 90 360 2.0 4.0 0.00 0.00 0.00 48 1009.1
20260904040633 90 360 1.0 4.0 0.00 0.00 0.00 48 1009.1
20260904040534 90 360 1.0 4.0 0.00 0.00 0.00 48 1009.1
20260904040435 90 360 2.0 4.0 0.00 0.00 0.00 48 1009.0
20260904040344 90 360 1.0 4.0 0.00 0.00 0.00 48 1008.9
20260904040229 90 360 1.0 4.0 0.00 0.00 0.00 48 1009.0
20260904040116 90 360 1.0 4.0 0.00 0.00 0.00 48 1009.0
20260904040032 90 360 2.0 4.0 0.00 0.00 0.00 49 1009.0
20260904035921 90 360 2.0 4.0 0.00 0.00 0.00 49 1009.0
20260904035829 90 360 2.0 4.0 0.00 0.00 0.00 48 1009.0
20260904035740 90 360 2.0 4.0 0.00 0.00 0.00 49 1009.0
20260904035640 90 360 2.0 4.0 0.00 0.00 0.00 49 1009.0
20260904035533 90 360 2.0 4.0 0.00 0.00 0.00 49 1009.0
20260904035433 90 360 2.0 4.0 0.00 0.00 0.00 49 1008.9
20260904035340 90 360 1.0 4.0 0.00 0.00 0.00 49 1008.9
20260904035241 90 360 1.0 5.0 0.00 0.00 0.00 49 1008.9
20260904035128 90 360 2.0 5.0 0.00 0.00 0.00 49 1008.9
20260904035029 90 360 1.0 5.0 0.00 0.00 0.00 49 1008.9
20260904034957 90 360 1.0 5.0 0.00 0.00 0.00 49 1008.9
20260904034816 90 360 2.0 5.0 0.00 0.00 0.00 49 1009.0
20260904034731 90 360 2.0 5.0 0.00 0.00 0.00 49 1009.0
20260904034633 90 360 2.0 5.0 0.00 0.00 0.00 49 1008.9
20260904034535 90 360 2.0 5.0 0.00 0.00 0.00 49 1009.0
20260904034417 90 360 2.0 5.0 0.00 0.00 0.00 49 1009.0
20260904034326 90 360 1.0 5.0 0.00 0.00 0.00 49 1009.0
20260904034249 90 360 2.0 5.0 0.00 0.00 0.00 49 1008.9
20260904034137 90 360 2.0 5.0 0.00 0.00 0.00 49 1008.9
20260904034024 90 360 2.0 5.0 0.00 0.00 0.00 49 1009.0
20260904033927 90 360 2.0 5.0 0.00 0.00 0.00 49 1008.9
20260904033830 90 360 2.0 5.0 0.00 0.00 0.00 49 1008.9
20260904033739 90 360 2.0 5.0 0.00 0.00 0.00 48 1008.9
20260904033618 90 360 2.0 5.0 0.00 0.00 0.00 48 1008.8
20260904033524 90 360 2.0 5.0 0.00 0.00 0.00 48 1008.8
20260904033432 90 360 2.0 5.0 0.00 0.00 0.00 48 1008.8
20260904033333 90 360 2.0 5.0 0.00 0.00 0.00 48 1008.8
20260904033222 90 360 2.0 5.0 0.00 0.00 0.00 48 1008.8
20260904033124 90 360 2.0 5.0 0.00 0.00 0.00 48 1008.7
20260904033054 90 360 2.0 5.0 0.00 0.00 0.00 48 1008.7
20260904032934 90 360 2.0 5.0 0.00 0.00 0.00 48 1008.8
20260904032821 91 360 2.0 4.0 0.00 0.00 0.00 48 1008.8
20260904032723 91 360 2.0 8.0 0.00 0.00 0.00 48 1008.7
20260904032633 91 360 2.0 8.0 0.00 0.00 0.00 48 1008.7
20260904032534 91 360 2.0 8.0 0.00 0.00 0.00 48 1008.7
20260904032503 91 360 2.0 10.0 0.00 0.00 0.00 48 1008.7
20260904032324 91 360 2.0 10.0 0.00 0.00 0.00 48 1008.7
20260904032226 91 360 2.0 10.0 0.00 0.00 0.00 48 1008.6
20260904032132 91 360 2.0 10.0 0.00 0.00 0.00 48 1008.6
20260904032041 91 360 2.0 10.0 0.00 0.00 0.00 48 1008.6
20260904031921 91 360 2.0 10.0 0.00 0.00 0.00 48 1008.6
20260904031850 91 360 2.0 10.0 0.00 0.00 0.00 48 1008.6
20260904031732 91 360 3.0 10.0 0.00 0.00 0.00 48 1008.6
20260904031640 91 360 4.0 10.0 0.00 0.00 0.00 48 1008.5
20260904031526 91 360 4.0 9.0 0.00 0.00 0.00 48 1008.5
20260904031447 91 360 4.0 9.0 0.00 0.00 0.00 48 1008.4
20260904031356 91 360 3.0 9.0 0.00 0.00 0.00 48 1008.4
20260904031216 91 360 2.0 9.0 0.00 0.00 0.00 48 1008.4
20260904031145 91 360 2.0 9.0 0.00 0.00 0.00 47 1008.5
20260904031045 91 360 2.0 9.0 0.00 0.00 0.00 48 1008.4
20260904030934 91 360 3.0 9.0 0.00 0.00 0.00 48 1008.4
20260904030835 91 360 3.0 9.0 0.00 0.00 0.00 47 1008.5
20260904030720 91 360 3.0 9.0 0.00 0.00 0.00 47 1008.3
20260904030649 91 360 2.0 7.0 0.00 0.00 0.00 47 1008.4
20260904030548 91 360 2.0 7.0 0.00 0.00 0.00 47 1008.4
20260904030437 91 360 2.0 7.0 0.00 0.00 0.00 47 1008.4
20260904030319 91 360 2.0 7.0 0.00 0.00 0.00 47 1008.3
20260904030220 91 360 2.0 7.0 0.00 0.00 0.00 47 1008.4
20260904030132 91 360 2.0 7.0 0.00 0.00 0.00 47 1008.4
20260904030106 91 360 2.0 7.0 0.00 0.00 0.00 47 1008.4
20260904025925 91 360 2.0 7.0 0.00 0.00 0.00 47 1008.3
20260904025846 91 360 2.0 7.0 0.00 0.00 0.00 47 1008.4
20260904025754 91 360 2.0 7.0 0.00 0.00 0.00 47 1008.4
20260904025633 91 360 2.0 8.0 0.00 0.00 0.00 47 1008.4
20260904025515 92 360 2.0 8.0 0.00 0.00 0.00 47 1008.5
20260904025445 92 360 2.0 8.0 0.00 0.00 0.00 47 1008.4
20260904025330 92 360 3.0 8.0 0.00 0.00 0.00 47 1008.4
20260904025239 92 360 2.0 8.0 0.00 0.00 0.00 46 1008.4
20260904025121 92 360 1.0 10.0 0.00 0.00 0.00 46 1008.4
20260904025023 92 360 2.0 10.0 0.00 0.00 0.00 46 1008.4
20260904024925 92 360 2.0 10.0 0.00 0.00 0.00 46 1008.4
20260904024835 92 360 2.0 10.0 0.00 0.00 0.00 46 1008.4
20260904024721 92 127 2.0 10.0 0.00 0.00 0.00 46 1008.3
20260904024623 92 360 2.0 10.0 0.00 0.00 0.00 45 1008.2
20260904024525 92 360 3.0 10.0 0.00 0.00 0.00 45 1008.1
20260904024434 92 126 3.0 11.0 0.00 0.00 0.00 45 1008.1
20260904024341 92 125 2.0 11.0 0.00 0.00 0.00 45 1008.1
20260904024222 92 125 2.0 11.0 0.00 0.00 0.00 45 1008.1
20260904024123 92 125 2.0 11.0 0.00 0.00 0.00 45 1008.1
20260904024029 93 125 2.0 11.0 0.00 0.00 0.00 45 1008.1
20260904023939 93 125 2.0 11.0 0.00 0.00 0.00 45 1008.1
20260904023822 93 125 3.0 12.0 0.00 0.00 0.00 45 1008.1
20260904023723 93 124 4.0 12.0 0.00 0.00 0.00 45 1008.0
20260904023624 93 125 4.0 12.0 0.00 0.00 0.00 45 1008.0
20260904023517 93 126 3.0 13.0 0.00 0.00 0.00 44 1008.1
20260904023439 93 129 2.0 13.0 0.00 0.00 0.00 44 1008.1
20260904023328 93 130 2.0 13.0 0.00 0.00 0.00 44 1008.2
20260904023231 93 130 3.0 13.0 0.00 0.00 0.00 44 1008.2
20260904023133 93 129 5.0 13.0 0.00 0.00 0.00 44 1008.1
20260904023042 93 131 5.0 13.0 0.00 0.00 0.00 44 1008.2
20260904022924 94 132 6.0 13.0 0.00 0.00 0.00 44 1008.2
20260904022831 94 132 5.0 13.0 0.00 0.00 0.00 43 1008.2
20260904022732 94 129 6.0 13.0 0.00 0.00 0.00 44 1008.3
20260904022641 94 133 5.0 11.0 0.00 0.00 0.00 43 1008.2
20260904022524 94 132 3.0 8.0 0.00 0.00 0.00 43 1008.2
20260904022425 94 132 2.0 8.0 0.00 0.00 0.00 43 1008.2
20260904022334 94 132 2.0 8.0 0.00 0.00 0.00 43 1008.2
20260904022219 94 132 3.0 8.0 0.00 0.00 0.00 43 1008.1
20260904022120 94 132 2.0 8.0 0.00 0.00 0.00 43 1008.1
20260904022028 94 132 1.0 8.0 0.00 0.00 0.00 42 1008.0
20260904022000 94 132 2.0 8.0 0.00 0.00 0.00 42 1008.0
20260904021821 94 132 4.0 8.0 0.00 0.00 0.00 42 1008.0
20260904021722 94 132 3.0 7.0 0.00 0.00 0.00 42 1008.0
20260904021631 94 132 3.0 7.0 0.00 0.00 0.00 42 1008.0
20260904021516 95 132 2.0 9.0 0.00 0.00 0.00 42 1008.0
20260904021419 95 132 2.0 9.0 0.00 0.00 0.00 42 1008.0
20260904021321 95 132 2.0 9.0 0.00 0.00 0.00 42 1008.0
20260904021231 95 132 1.0 9.0 0.00 0.00 0.00 42 1008.0
20260904021133 95 132 1.0 11.0 0.00 0.00 0.00 41 1008.0
20260904021101 95 132 1.0 11.0 0.00 0.00 0.00 41 1008.0
20260904020942 95 132 4.0 11.0 0.00 0.00 0.00 41 1008.1
20260904020827 95 132 5.0 11.0 0.00 0.00 0.00 41 1008.1
20260904020735 95 132 5.0 11.0 0.00 0.00 0.00 41 1008.1
20260904020617 95 129 3.0 11.0 0.00 0.00 0.00 41 1008.1
20260904020519 95 129 4.0 11.0 0.00 0.00 0.00 40 1008.1
20260904020448 95 129 4.0 11.0 0.00 0.00 0.00 40 1008.1
20260904020328 95 120 2.0 5.0 0.00 0.00 0.00 40 1008.0
20260904020241 95 118 2.0 6.0 0.00 0.00 0.00 41 1008.0
20260904020122 95 117 1.0 6.0 0.00 0.00 0.00 41 1008.0
20260904020045 95 117 1.0 8.0 0.00 0.00 0.00 41 1008.0
20260904015934 96 117 1.0 8.0 0.00 0.00 0.00 41 1008.0
20260904015815 96 117 1.0 8.0 0.00 0.00 0.00 41 1007.9
20260904015717 96 118 1.0 8.0 0.00 0.00 0.00 41 1008.0
20260904015631 96 117 2.0 8.0 0.00 0.00 0.00 41 1008.0
20260904015532 96 117 2.0 8.0 0.00 0.00 0.00 41 1007.9
20260904015502 96 118 2.0 8.0 0.00 0.00 0.00 40 1007.9
20260904015322 96 117 2.0 8.0 0.00 0.00 0.00 40 1007.7
20260904015225 96 117 2.0 8.0 0.00 0.00 0.00 40 1007.7
20260904015126 96 113 2.0 10.0 0.00 0.00 0.00 40 1007.7
20260904015035 97 113 2.0 10.0 0.00 0.00 0.00 39 1007.7
20260904014922 97 113 1.0 10.0 0.00 0.00 0.00 39 1007.6
20260904014842 97 112 1.0 10.0 0.00 0.00 0.00 38 1007.6
20260904014732 97 112 2.0 10.0 0.00 0.00 0.00 38 1007.6
20260904014634 98 112 2.0 10.0 0.00 0.00 0.00 38 1007.6
20260904014517 98 110 2.0 10.0 0.00 0.00 0.00 38 1007.6
20260904014415 98 109 3.0 10.0 0.00 0.00 0.00 37 1007.6
20260904014328 98 108 3.0 10.0 0.00 0.00 0.00 37 1007.6
20260904014259 99 108 4.0 10.0 0.00 0.00 0.00 36 1007.6
20260904014039 99 104 1.0 5.0 0.00 0.00 0.00 33 1007.5
20260904013940 99 104 1.0 3.0 0.00 0.00 0.00 33 1007.5
20260904013822 99 104 2.0 3.0 0.00 0.00 0.00 33 1007.5
20260904013723 99 104 1.0 3.0 0.00 0.00 0.00 33 1007.4
20260904013637 99 104 1.0 3.0 0.00 0.00 0.00 33 1007.4
20260904013520 99 104 1.0 4.0 0.00 0.00 0.00 33 1007.3
20260904013423 99 104 1.0 4.0 0.00 0.00 0.00 33 1007.3
20260904013326 99 104 1.0 4.0 0.00 0.00 0.00 33 1007.3
20260904013237 99 104 1.0 4.0 0.00 0.00 0.00 33 1007.3
20260904013123 99 104 1.0 4.0 0.00 0.00 0.00 33 1007.2
20260904013045 99 104 1.0 4.0 0.00 0.00 0.00 33 1007.2
20260904012932 99 104 2.0 4.0 0.00 0.00 0.00 33 1007.2
20260904012835 99 104 2.0 4.0 0.00 0.00 0.00 33 1007.2
20260904012716 99 104 2.0 4.0 0.00 0.00 0.00 33 1007.2
20260904012626 99 104 1.0 4.0 0.00 0.00 0.00 33 1007.2
20260904012528 99 104 1.0 3.0 0.00 0.00 0.00 33 1007.3
20260904012442 99 104 1.0 3.0 0.00 0.00 0.00 33 1007.3
20260904012322 99 104 2.0 3.0 0.00 0.00 0.00 33 1007.3
20260904012224 99 104 2.0 3.0 0.00 0.00 0.00 33 1007.3
20260904012134 99 104 1.0 3.0 0.00 0.00 0.00 33 1007.3
20260904012056 99 103 1.0 4.0 0.00 0.00 0.00 33 1007.3
20260904011916 99 103 1.0 4.0 0.00 0.00 0.00 33 1007.3
20260904011826 99 103 1.0 4.0 0.00 0.00 0.00 33 1007.3
20260904011734 99 103 0.0 4.0 0.00 0.00 0.00 33 1007.3
20260904011615 99 103 1.0 4.0 0.00 0.00 0.00 33 1007.3
20260904011517 99 103 1.0 4.0 0.00 0.00 0.00 33 1007.3
20260904011427 99 103 1.0 4.0 0.00 0.00 0.00 33 1007.2
20260904011328 99 103 1.0 4.0 0.00 0.00 0.00 33 1007.2
20260904011231 99 103 1.0 4.0 0.00 0.00 0.00 32 1007.2
20260904011115 99 103 0.0 2.0 0.00 0.00 0.00 33 1007.3
20260904011025 99 103 0.0 2.0 0.00 0.00 0.00 32 1007.3
20260904010945 99 103 0.0 2.0 0.00 0.00 0.00 32 1007.2
20260904010834 99 103 1.0 3.0 0.00 0.00 0.00 32 1007.2
20260904010717 99 103 1.0 3.0 0.00 0.00 0.00 33 1007.3
20260904010619 99 103 1.0 3.0 0.00 0.00 0.00 32 1007.3
20260904010525 99 103 1.0 3.0 0.00 0.00 0.00 32 1007.3
20260904010435 99 103 1.0 3.0 0.00 0.00 0.00 32 1007.3
20260904010317 99 103 1.0 3.0 0.00 0.00 0.00 32 1007.5
20260904010219 99 103 1.0 3.0 0.00 0.00 0.00 32 1007.4
20260904010121 99 103 1.0 3.0 0.00 0.00 0.00 32 1007.4
20260904010042 99 103 1.0 3.0 0.00 0.00 0.00 32 1007.4
20260904005917 100 103 0.0 3.0 0.00 0.00 0.00 32 1007.4
20260904005819 100 103 1.0 3.0 0.00 0.00 0.00 32 1007.4
20260904005728 100 103 1.0 3.0 0.00 0.00 0.00 32 1007.5
20260904005631 100 103 0.0 3.0 0.00 0.00 0.00 32 1007.5
20260904005533 100 103 0.0 3.0 0.00 0.00 0.00 32 1007.5
20260904005442 100 103 1.0 3.0 0.00 0.00 0.00 32 1007.5
20260904005327 100 103 1.0 3.0 0.00 0.00 0.00 32 1007.4
20260904005228 100 103 1.0 3.0 0.00 0.00 0.00 32 1007.3
20260904005138 100 103 1.0 3.0 0.00 0.00 0.00 32 1007.3
20260904005019 100 103 1.0 3.0 0.00 0.00 0.00 32 1007.3
20260904004921 100 103 1.0 3.0 0.00 0.00 0.00 32 1007.3
20260904004823 100 103 1.0 3.0 0.00 0.00 0.00 32 1007.4
20260904004716 100 103 1.0 3.0 0.00 0.00 0.00 32 1007.4
20260904004638 100 103 1.0 3.0 0.00 0.00 0.00 32 1007.4
20260904004546 100 103 1.0 3.0 0.00 0.00 0.00 32 1007.4
20260904004426 100 103 1.0 3.0 0.00 0.00 0.00 32 1007.4
20260904004336 100 103 1.0 3.0 0.00 0.00 0.00 32 1007.4
20260904004218 100 103 1.0 3.0 0.00 0.00 0.00 32 1007.5
20260904004124 100 103 1.0 3.0 0.00 0.00 0.00 32 1007.5
20260904004054 100 103 1.0 3.0 0.00 0.00 0.00 32 1007.5
20260904003934 100 103 1.0 3.0 0.00 0.00 0.00 32 1007.5
20260904003815 100 103 1.0 3.0 0.00 0.00 0.00 32 1007.4
20260904003745 100 103 1.0 3.0 0.00 0.00 0.00 32 1007.4
20260904003626 100 103 1.0 3.0 0.00 0.00 0.00 32 1007.4
20260904003528 100 103 1.0 3.0 0.00 0.00 0.00 32 1007.4
20260904003421 100 103 1.0 3.0 0.00 0.00 0.00 32 1007.4
20260904003323 100 103 1.0 3.0 0.00 0.00 0.00 32 1007.5
20260904003225 100 103 1.0 4.0 0.00 0.00 0.00 32 1007.5
20260904003136 100 103 2.0 4.0 0.00 0.00 0.00 32 1007.5
20260904003019 100 103 2.0 5.0 0.00 0.00 0.00 32 1007.5
20260904002921 100 103 1.0 5.0 0.00 0.00 0.00 32 1007.4
20260904002856 100 103 1.0 5.0 0.00 0.00 0.00 33 1007.4
20260904002717 100 103 1.0 5.0 0.00 0.00 0.00 32 1007.4
20260904002620 100 103 1.0 5.0 0.00 0.00 0.00 32 1007.3
20260904002549 100 103 1.0 5.0 0.00 0.00 0.00 32 1007.4
20260904002431 100 103 1.0 5.0 0.00 0.00 0.00 32 1007.4
20260904002359 100 103 1.0 5.0 0.00 0.00 0.00 32 1007.4
20260904002219 100 103 1.0 5.0 0.00 0.00 0.00 31 1007.5
20260904002124 100 103 1.0 2.0 0.00 0.00 0.00 31 1007.6
20260904002034 100 103 1.0 2.0 0.00 0.00 0.00 31 1007.6
20260904001915 100 103 1.0 2.0 0.00 0.00 0.00 32 1007.5
20260904001817 100 103 1.0 2.0 0.00 0.00 0.00 32 1007.5
20260904001720 100 103 1.0 2.0 0.00 0.00 0.00 31 1007.6
20260904001650 100 103 1.0 2.0 0.00 0.00 0.00 31 1007.6
20260904001537 100 103 1.0 2.0 0.00 0.00 0.00 31 1007.6
20260904001421 100 103 1.0 2.0 0.00 0.00 0.00 32 1007.6
20260904001351 100 103 1.0 2.0 0.00 0.00 0.00 32 1007.6
20260904001232 100 103 1.0 2.0 0.00 0.00 0.00 32 1007.5
20260904001134 100 103 1.0 2.0 0.00 0.00 0.00 31 1007.5
20260904001016 100 103 1.0 2.0 0.00 0.00 0.00 31 1007.4
20260904000926 100 103 0.0 1.0 0.00 0.00 0.00 32 1007.4
20260904000834 100 103 0.0 1.0 0.00 0.00 0.00 31 1007.4
20260904000737 100 103 0.0 1.0 0.00 0.00 0.00 31 1007.4
20260904000625 100 103 0.0 1.0 0.00 0.00 0.00 32 1007.4
20260904000547 100 103 0.0 1.0 0.00 0.00 0.00 32 1007.5
20260904000436 100 103 0.0 1.0 0.00 0.00 0.00 32 1007.5
20260904000337 100 103 0.0 3.0 0.00 0.00 0.00 32 1007.4
20260904000226 100 103 0.0 3.0 0.00 0.00 0.00 32 1007.5
20260904000131 100 103 0.0 3.0 0.00 0.00 0.00 31 1007.5
20260904000052 100 103 0.0 3.0 0.00 0.00 0.00 32 1007.5
20260903235922 100 103 0.0 3.0 0.00 0.00 0.00 31 1007.5
20260903235823 100 103 0.0 3.0 0.00 0.00 0.00 32 1007.5
20260903235725 100 103 1.0 3.0 0.00 0.00 0.00 31 1007.6
20260903235635 100 103 1.0 3.0 0.00 0.00 0.00 32 1007.6
20260903235541 100 103 1.0 3.0 0.00 0.00 0.00 31 1007.5
20260903235449 100 103 1.0 3.0 0.00 0.00 0.00 32 1007.6
20260903235326 100 103 1.0 3.0 0.00 0.00 0.00 32 1007.6
20260903235256 100 103 1.0 3.0 0.00 0.00 0.00 31 1007.6
20260903235118 100 103 0.0 3.0 0.00 0.00 0.00 31 1007.6
20260903235019 100 103 0.0 3.0 0.00 0.00 0.00 31 1007.6
20260903234928 100 103 0.0 3.0 0.00 0.00 0.00 31 1007.6
20260903234831 100 103 0.0 3.0 0.00 0.00 0.00 31 1007.6
20260903234717 100 103 0.0 3.0 0.00 0.00 0.00 31 1007.6
20260903234619 100 103 1.0 3.0 0.00 0.00 0.00 31 1007.6
20260903234527 100 103 1.0 3.0 0.00 0.00 0.00 31 1007.6
20260903234448 100 103 2.0 3.0 0.00 0.00 0.00 31 1007.6
20260903234336 100 103 1.0 3.0 0.00 0.00 0.00 31 1007.6
20260903234218 100 103 0.0 1.0 0.00 0.00 0.00 31 1007.6
20260903234131 100 103 0.0 1.0 0.00 0.00 0.00 31 1007.6
20260903234033 101 103 0.0 2.0 0.00 0.00 0.00 31 1007.6
20260903233941 100 103 0.0 2.0 0.00 0.00 0.00 31 1007.6
20260903233823 100 103 0.0 2.0 0.00 0.00 0.00 32 1007.6
20260903233726 100 103 0.0 2.0 0.00 0.00 0.00 31 1007.6
20260903233628 100 103 0.0 2.0 0.00 0.00 0.00 33 1007.7
20260903233515 100 103 0.0 2.0 0.00 0.00 0.00 32 1007.6
20260903233441 100 103 1.0 2.0 0.00 0.00 0.00 31 1007.6
20260903233331 100 103 1.0 2.0 0.00 0.00 0.00 33 1007.6
20260903233233 100 103 1.0 2.0 0.00 0.00 0.00 32 1007.7
20260903233203 100 103 1.0 2.0 0.00 0.00 0.00 31 1007.7
20260903233025 100 103 1.0 2.0 0.00 0.00 0.00 32 1007.6
20260903232927 100 103 0.0 2.0 0.00 0.00 0.00 32 1007.6
20260903232817 100 103 0.0 2.0 0.00 0.00 0.00 32 1007.6
20260903232722 100 103 1.0 3.0 0.00 0.00 0.00 32 1007.6
20260903232623 100 103 1.0 3.0 0.00 0.00 0.00 32 1007.6
20260903232534 100 103 1.0 3.0 0.00 0.00 0.00 32 1007.6
20260903232502 100 103 0.0 3.0 0.00 0.00 0.00 32 1007.6
20260903232343 101 103 1.0 3.0 0.00 0.00 0.00 32 1007.7
20260903232224 101 103 1.0 3.0 0.00 0.00 0.00 32 1007.7
20260903232134 101 103 1.0 3.0 0.00 0.00 0.00 32 1007.7
20260903232020 101 103 1.0 3.0 0.00 0.00 0.00 32 1007.7
20260903231922 101 103 0.0 2.0 0.00 0.00 0.00 31 1007.8
20260903231821 101 103 0.0 2.0 0.00 0.00 0.00 31 1007.9
20260903231731 101 103 0.0 2.0 0.00 0.00 0.00 32 1007.9
20260903231634 101 103 1.0 2.0 0.00 0.00 0.00 31 1007.9
20260903231516 101 103 1.0 2.0 0.00 0.00 0.00 31 1007.8
20260903231431 101 103 0.0 2.0 0.00 0.00 0.00 31 1007.8
20260903231333 102 103 0.0 2.0 0.00 0.00 0.00 30 1007.8
20260903231234 102 103 0.0 2.0 0.00 0.00 0.00 30 1007.8
20260903231115 101 103 0.0 2.0 0.00 0.00 0.00 31 1007.8
20260903231026 101 103 0.0 2.0 0.00 0.00 0.00 31 1007.8
20260903230926 101 103 0.0 2.0 0.00 0.00 0.00 31 1007.9
20260903230856 101 103 1.0 2.0 0.00 0.00 0.00 31 1007.9
20260903230718 101 103 1.0 2.0 0.00 0.00 0.00 31 1007.9
20260903230621 101 103 0.0 2.0 0.00 0.00 0.00 31 1008.0
20260903230528 101 103 0.0 2.0 0.00 0.00 0.00 31 1008.1
20260903230431 101 103 0.0 2.0 0.00 0.00 0.00 31 1008.1
20260903230333 100 103 0.0 3.0 0.00 0.00 0.00 31 1008.1
20260903230241 101 103 0.0 6.0 0.00 0.00 0.00 32 1008.1
20260903230126 101 103 0.0 6.0 0.00 0.00 0.00 31 1008.1
20260903230047 101 103 0.0 7.0 0.00 0.00 0.00 30 1008.1
20260903225919 101 103 1.0 7.0 0.00 0.00 0.00 30 1008.2
20260903225821 102 103 1.0 7.0 0.00 0.00 0.00 30 1008.2
20260903225723 102 103 2.0 7.0 0.00 0.00 0.00 30 1008.2
20260903225647 102 103 2.0 7.0 0.00 0.00 0.00 30 1008.2